EW6460 Weather Reports


time (UTC)temp
F
wind
direction
speed
knots
gust
knots
rain 1hr
in
rain 24hr
in
rain mn
in
humidity
%
barometer
mb
20190420221549 82 263 0.9 7.0 0.00 0.00 0.00 35 1015.1
20190420221439 82 173 1.7 7.0 0.00 0.00 0.00 36 1015.1
20190420221331 83 164 2.6 7.0 0.00 0.00 0.00 35 1015.2
20190420221247 83 238 2.6 7.0 0.00 0.00 0.00 35 1015.2
20190420221138 83 246 0.9 6.1 0.00 0.00 0.00 38 1015.2
20190420221045 83 189 0.0 6.1 0.00 0.00 0.00 38 1015.3
20190420220937 83 162 0.9 6.1 0.00 0.00 0.00 36 1015.2
20190420220830 83 151 1.7 6.1 0.00 0.00 0.00 38 1015.3
20190420220741 83 173 1.7 6.1 0.00 0.00 0.00 36 1015.3
20190420220634 83 141 1.7 6.1 0.00 0.00 0.00 38 1015.2
20190420220539 83 165 0.9 6.1 0.00 0.00 0.00 38 1015.2
20190420220436 83 161 0.9 6.1 0.00 0.00 0.00 35 1015.3
20190420220347 83 160 1.7 6.1 0.00 0.00 0.00 35 1015.3
20190420220240 83 211 0.9 6.1 0.00 0.00 0.00 37 1015.3
20190420220130 83 164 0.9 5.2 0.00 0.00 0.00 39 1015.3
20190420220038 83 195 0.9 5.2 0.00 0.00 0.00 36 1015.3
20190420215947 82 238 0.9 5.2 0.00 0.00 0.00 37 1015.3
20190420215839 82 167 0.9 5.2 0.00 0.00 0.00 36 1015.3
20190420215731 82 186 0.9 5.2 0.00 0.00 0.00 35 1015.3
20190420215642 82 198 0.9 5.2 0.00 0.00 0.00 35 1015.3
20190420215534 82 179 1.7 7.0 0.00 0.00 0.00 34 1015.4
20190420215445 82 141 1.7 7.0 0.00 0.00 0.00 35 1015.4
20190420215337 82 152 0.9 7.0 0.00 0.00 0.00 35 1015.5
20190420215228 82 214 0.9 7.0 0.00 0.00 0.00 36 1015.5
20190420215140 82 155 0.9 7.0 0.00 0.00 0.00 36 1015.5
20190420215028 82 177 1.7 7.0 0.00 0.00 0.00 35 1015.5
20190420214939 82 136 1.7 7.0 0.00 0.00 0.00 35 1015.5
20190420214832 82 166 2.6 7.0 0.00 0.00 0.00 34 1015.6
20190420214747 82 143 1.7 7.0 0.00 0.00 0.00 35 1015.6
20190420214639 82 155 1.7 7.8 0.00 0.00 0.00 35 1015.6
20190420214547 82 231 1.7 7.8 0.00 0.00 0.00 36 1015.7
20190420214436 82 182 0.9 7.8 0.00 0.00 0.00 36 1015.7
20190420214328 82 229 0.9 7.8 0.00 0.00 0.00 34 1015.7
20190420214240 82 174 0.9 7.8 0.00 0.00 0.00 36 1015.7
20190420214131 82 162 0.9 7.8 0.00 0.00 0.00 35 1015.8
20190420214039 82 178 1.7 7.8 0.00 0.00 0.00 34 1015.8
20190420213934 82 211 2.6 7.8 0.00 0.00 0.00 34 1015.8
20190420213845 82 186 1.7 7.8 0.00 0.00 0.00 35 1015.8
20190420213738 82 179 0.9 6.1 0.00 0.00 0.00 35 1015.9
20190420213629 82 180 1.7 6.1 0.00 0.00 0.00 35 1015.9
20190420213535 82 169 1.7 6.1 0.00 0.00 0.00 35 1015.9
20190420213447 82 281 0.9 6.1 0.00 0.00 0.00 35 1016.0
20190420213339 82 167 1.7 6.1 0.00 0.00 0.00 35 1016.0
20190420213231 82 143 2.6 6.1 0.00 0.00 0.00 34 1016.0
20190420213143 82 146 1.7 6.1 0.00 0.00 0.00 34 1016.0
20190420213033 82 228 2.6 6.1 0.00 0.00 0.00 33 1016.1
20190420212944 82 158 2.6 6.1 0.00 0.00 0.00 35 1016.1
20190420212837 82 181 1.7 6.1 0.00 0.00 0.00 33 1016.1
20190420212728 82 226 2.6 6.1 0.00 0.00 0.00 34 1016.1
20190420212640 82 181 2.6 6.1 0.00 0.00 0.00 34 1016.1
20190420212528 82 242 0.9 6.1 0.00 0.00 0.00 36 1016.2
20190420212440 82 257 0.9 6.1 0.00 0.00 0.00 35 1016.2
20190420212333 82 200 1.7 6.1 0.00 0.00 0.00 34 1016.2
20190420212228 82 235 1.7 6.1 0.00 0.00 0.00 34 1016.3
20190420212140 82 179 1.7 6.1 0.00 0.00 0.00 35 1016.3
20190420212048 82 229 1.7 6.1 0.00 0.00 0.00 35 1016.2
20190420211938 82 245 2.6 8.7 0.00 0.00 0.00 34 1016.3
20190420211830 82 210 1.7 8.7 0.00 0.00 0.00 34 1016.3
20190420211742 82 243 2.6 8.7 0.00 0.00 0.00 33 1016.3
20190420211634 82 158 2.6 8.7 0.00 0.00 0.00 33 1016.4
20190420211542 82 163 1.7 8.7 0.00 0.00 0.00 33 1016.4
20190420211437 82 146 1.7 8.7 0.00 0.00 0.00 34 1016.4
20190420211347 82 148 2.6 8.7 0.00 0.00 0.00 33 1016.4
20190420211239 82 178 3.5 8.7 0.00 0.00 0.00 32 1016.5
20190420211131 82 169 2.6 8.7 0.00 0.00 0.00 34 1016.5
20190420211038 82 186 1.7 8.7 0.00 0.00 0.00 32 1016.5
20190420210930 82 237 1.7 8.7 0.00 0.00 0.00 35 1016.5
20190420210842 82 168 2.6 8.7 0.00 0.00 0.00 35 1016.5
20190420210735 82 233 2.6 8.7 0.00 0.00 0.00 34 1016.5
20190420210631 82 236 0.9 7.0 0.00 0.00 0.00 36 1016.6
20190420210537 82 239 0.9 7.0 0.00 0.00 0.00 36 1016.6
20190420210428 82 185 2.6 7.0 0.00 0.00 0.00 35 1016.6
20190420210340 82 229 3.5 7.0 0.00 0.00 0.00 35 1016.6
20190420210233 82 240 1.7 7.0 0.00 0.00 0.00 35 1016.6
20190420210145 82 270 1.7 7.0 0.00 0.00 0.00 35 1016.6
20190420210031 82 174 1.7 7.0 0.00 0.00 0.00 34 1016.6
20190420205942 82 194 1.7 7.0 0.00 0.00 0.00 35 1016.6
20190420205833 82 176 1.7 7.0 0.00 0.00 0.00 35 1016.7
20190420205730 82 155 1.7 7.0 0.00 0.00 0.00 34 1016.7
20190420205641 81 166 1.7 7.0 0.00 0.00 0.00 36 1016.7
20190420205528 81 174 1.7 7.0 0.00 0.00 0.00 35 1016.7
20190420205440 81 78 1.7 6.1 0.00 0.00 0.00 35 1016.7
20190420205333 81 223 3.5 6.1 0.00 0.00 0.00 35 1016.7
20190420205244 81 212 3.5 7.0 0.00 0.00 0.00 35 1016.7
20190420205137 82 157 3.5 7.0 0.00 0.00 0.00 34 1016.7
20190420205042 82 219 2.6 7.0 0.00 0.00 0.00 35 1016.7
20190420204938 82 169 1.7 7.0 0.00 0.00 0.00 36 1016.6
20190420204831 81 165 0.9 7.0 0.00 0.00 0.00 35 1016.7
20190420204742 81 212 0.9 7.0 0.00 0.00 0.00 37 1016.7
20190420204634 81 248 2.6 7.0 0.00 0.00 0.00 34 1016.7
20190420204542 81 179 3.5 7.0 0.00 0.00 0.00 35 1016.8
20190420204432 81 179 2.6 9.6 0.00 0.00 0.00 36 1016.8
20190420204343 81 229 2.6 9.6 0.00 0.00 0.00 36 1016.8
20190420204235 81 141 3.5 9.6 0.00 0.00 0.00 35 1016.7
20190420204131 81 155 2.6 9.6 0.00 0.00 0.00 35 1016.8
20190420204038 81 181 2.6 9.6 0.00 0.00 0.00 36 1016.8
20190420203931 81 267 3.5 9.6 0.00 0.00 0.00 35 1016.8
20190420203841 81 226 3.5 9.6 0.00 0.00 0.00 35 1016.8
20190420203733 81 141 2.6 9.6 0.00 0.00 0.00 36 1016.8
20190420203645 81 260 3.5 9.6 0.00 0.00 0.00 36 1016.8
20190420203533 81 207 2.6 6.1 0.00 0.00 0.00 36 1016.8
20190420203443 81 200 1.7 6.1 0.00 0.00 0.00 35 1016.8
20190420203335 81 174 1.7 6.1 0.00 0.00 0.00 36 1016.9
20190420203231 81 226 1.7 6.1 0.00 0.00 0.00 38 1016.9
20190420203145 81 217 1.7 6.1 0.00 0.00 0.00 35 1016.9
20190420203031 81 200 0.9 6.1 0.00 0.00 0.00 37 1016.9
20190420202942 81 170 2.6 6.1 0.00 0.00 0.00 36 1016.9
20190420202833 81 198 2.6 6.1 0.00 0.00 0.00 36 1017.0
20190420202745 81 240 2.6 6.1 0.00 0.00 0.00 35 1017.0
20190420202638 81 186 2.6 6.1 0.00 0.00 0.00 35 1016.9
20190420202544 81 179 1.7 6.1 0.00 0.00 0.00 36 1017.1
20190420202440 81 195 1.7 6.1 0.00 0.00 0.00 36 1017.1
20190420202333 81 181 0.9 6.1 0.00 0.00 0.00 36 1017.1
20190420202242 81 162 0.9 6.1 0.00 0.00 0.00 38 1017.1
20190420202134 81 169 1.7 6.1 0.00 0.00 0.00 37 1017.0
20190420202040 81 221 1.7 6.1 0.00 0.00 0.00 40 1017.1
20190420201933 81 186 1.7 6.1 0.00 0.00 0.00 37 1017.1
20190420201844 81 163 2.6 6.1 0.00 0.00 0.00 36 1017.1
20190420201737 81 235 2.6 6.1 0.00 0.00 0.00 36 1017.2
20190420201633 81 159 1.7 6.1 0.00 0.00 0.00 37 1017.1
20190420201541 81 161 1.7 6.1 0.00 0.00 0.00 37 1017.1
20190420201430 81 155 1.7 7.8 0.00 0.00 0.00 36 1017.2
20190420201341 81 257 1.7 7.8 0.00 0.00 0.00 38 1017.2
20190420201230 81 151 2.6 7.8 0.00 0.00 0.00 36 1017.1
20190420201140 80 210 1.7 7.8 0.00 0.00 0.00 38 1017.1
20190420201047 80 226 0.9 7.8 0.00 0.00 0.00 38 1017.2
20190420200940 80 190 0.9 7.8 0.00 0.00 0.00 38 1017.2
20190420200831 80 216 2.6 7.8 0.00 0.00 0.00 36 1017.3
20190420200746 80 219 2.6 7.8 0.00 0.00 0.00 37 1017.3
20190420200639 80 222 3.5 7.8 0.00 0.00 0.00 37 1017.3
20190420200545 80 198 3.5 7.8 0.00 0.00 0.00 35 1017.3
20190420200436 80 264 2.6 5.2 0.00 0.00 0.00 38 1017.3
20190420200328 80 233 1.7 7.0 0.00 0.00 0.00 35 1017.4
20190420200240 80 164 1.7 7.8 0.00 0.00 0.00 38 1017.4
20190420200133 80 276 2.6 7.8 0.00 0.00 0.00 35 1017.4
20190420200039 80 287 2.6 7.8 0.00 0.00 0.00 36 1017.4
20190420195933 80 223 1.7 7.8 0.00 0.00 0.00 34 1017.5
20190420195843 80 168 1.7 7.8 0.00 0.00 0.00 36 1017.5
20190420195735 80 143 2.6 8.7 0.00 0.00 0.00 35 1017.6
20190420195647 80 163 3.5 8.7 0.00 0.00 0.00 37 1017.6
20190420195535 80 217 3.5 8.7 0.00 0.00 0.00 38 1017.7
20190420195446 80 207 2.6 8.7 0.00 0.00 0.00 38 1017.7
20190420195339 80 243 1.7 8.7 0.00 0.00 0.00 39 1017.7
20190420195231 80 257 3.5 8.7 0.00 0.00 0.00 37 1017.8
20190420195142 80 274 3.5 8.7 0.00 0.00 0.00 37 1017.8
20190420195034 80 233 4.3 8.7 0.00 0.00 0.00 38 1017.8
20190420194944 80 166 3.5 8.7 0.00 0.00 0.00 36 1017.8
20190420194836 80 176 1.7 6.1 0.00 0.00 0.00 38 1017.8
20190420194728 80 243 0.9 6.1 0.00 0.00 0.00 39 1017.8
20190420194640 80 175 1.7 6.1 0.00 0.00 0.00 39 1017.8
20190420194549 80 172 2.6 6.1 0.00 0.00 0.00 36 1017.7
20190420194439 80 184 1.7 5.2 0.00 0.00 0.00 37 1017.7
20190420194330 80 221 1.7 5.2 0.00 0.00 0.00 38 1017.7
20190420194246 80 257 1.7 6.1 0.00 0.00 0.00 37 1017.7
20190420194139 80 210 2.6 6.1 0.00 0.00 0.00 37 1017.8
20190420194045 80 172 1.7 6.1 0.00 0.00 0.00 37 1017.8
20190420193936 79 151 1.7 6.1 0.00 0.00 0.00 37 1017.7
20190420193828 79 139 1.7 6.1 0.00 0.00 0.00 37 1017.7
20190420193740 79 231 1.7 6.1 0.00 0.00 0.00 37 1017.7
20190420193631 79 140 1.7 6.1 0.00 0.00 0.00 37 1017.8
20190420193538 79 174 1.7 6.1 0.00 0.00 0.00 37 1017.8
20190420193434 79 249 2.6 6.1 0.00 0.00 0.00 37 1017.8
20190420193346 79 160 3.5 6.1 0.00 0.00 0.00 38 1017.9
20190420193237 79 216 3.5 7.0 0.00 0.00 0.00 36 1017.9
20190420193130 79 183 3.5 8.7 0.00 0.00 0.00 37 1017.9
20190420193039 79 165 3.5 8.7 0.00 0.00 0.00 37 1017.9
20190420192947 79 146 3.5 8.7 0.00 0.00 0.00 37 1017.9
20190420192840 79 163 2.6 8.7 0.00 0.00 0.00 40 1017.9
20190420192733 79 186 1.7 8.7 0.00 0.00 0.00 39 1018.0
20190420192643 79 167 2.6 8.7 0.00 0.00 0.00 38 1018.0
20190420192535 79 168 2.6 8.7 0.00 0.00 0.00 39 1017.9
20190420192446 79 171 3.5 8.7 0.00 0.00 0.00 39 1017.9
20190420192339 79 167 3.5 8.7 0.00 0.00 0.00 38 1018.0
20190420192130 79 252 3.5 9.6 0.00 0.00 0.00 38 1018.1
20190420192038 79 169 1.7 9.6 0.00 0.00 0.00 42 1018.1
20190420191930 79 165 0.0 9.6 0.00 0.00 0.00 42 1018.1
20190420191840 78 173 0.9 9.6 0.00 0.00 0.00 40 1018.1
20190420191736 78 180 2.6 9.6 0.00 0.00 0.00 39 1018.2
20190420191648 78 251 3.5 9.6 0.00 0.00 0.00 39 1018.2
20190420191533 79 231 3.5 9.6 0.00 0.00 0.00 39 1018.2
20190420191443 79 267 2.6 6.1 0.00 0.00 0.00 39 1018.2
20190420191335 78 177 1.7 6.1 0.00 0.00 0.00 40 1018.2
20190420191246 78 152 1.7 7.0 0.00 0.00 0.00 39 1018.2
20190420191138 78 180 2.6 7.0 0.00 0.00 0.00 38 1018.2
20190420191045 78 160 3.5 7.0 0.00 0.00 0.00 37 1018.2
20190420190941 78 197 2.6 7.0 0.00 0.00 0.00 37 1018.2
20190420190834 78 124 3.5 7.0 0.00 0.00 0.00 37 1018.2
20190420190744 78 150 3.5 7.0 0.00 0.00 0.00 37 1018.3
20190420190636 78 174 3.5 7.0 0.00 0.00 0.00 37 1018.3
20190420190543 78 184 2.6 7.0 0.00 0.00 0.00 40 1018.3
20190420190435 78 160 3.5 7.0 0.00 0.00 0.00 39 1018.3
20190420190346 78 184 3.5 7.0 0.00 0.00 0.00 39 1018.3
20190420190239 78 172 3.5 7.0 0.00 0.00 0.00 39 1018.4
20190420190135 78 117 3.5 7.0 0.00 0.00 0.00 37 1018.4
20190420190042 78 182 2.6 7.0 0.00 0.00 0.00 36 1018.5
20190420185931 78 178 1.7 7.0 0.00 0.00 0.00 40 1018.6
20190420185842 78 162 1.7 7.0 0.00 0.00 0.00 38 1018.6
20190420185735 78 248 3.5 7.0 0.00 0.00 0.00 38 1018.6
20190420185645 78 232 2.6 7.0 0.00 0.00 0.00 38 1018.5
20190420185533 78 184 1.7 6.1 0.00 0.00 0.00 38 1018.6
20190420185443 78 207 2.6 6.1 0.00 0.00 0.00 38 1018.6
20190420185335 78 180 2.6 9.6 0.00 0.00 0.00 39 1018.7
20190420185231 78 171 3.5 9.6 0.00 0.00 0.00 37 1018.7
20190420185143 78 188 2.6 9.6 0.00 0.00 0.00 39 1018.7
20190420185049 78 242 2.6 9.6 0.00 0.00 0.00 37 1018.7
20190420185001 77 196 1.7 9.6 0.00 0.00 0.00 39 1018.7
20190420184831 77 235 1.7 9.6 0.00 0.00 0.00 39 1018.8
20190420184743 77 232 2.6 9.6 0.00 0.00 0.00 37 1018.8
20190420184636 77 165 3.5 9.6 0.00 0.00 0.00 39 1018.8
20190420184544 77 147 3.5 9.6 0.00 0.00 0.00 37 1018.9
20190420184434 77 160 2.6 7.0 0.00 0.00 0.00 38 1018.9
20190420184331 77 184 2.6 7.0 0.00 0.00 0.00 37 1018.8
20190420184242 77 183 2.6 7.0 0.00 0.00 0.00 37 1018.8
20190420184135 77 176 2.6 7.0 0.00 0.00 0.00 38 1018.8
20190420184040 77 224 2.6 7.0 0.00 0.00 0.00 38 1018.8
20190420183933 77 225 2.6 7.0 0.00 0.00 0.00 37 1018.9
20190420183844 77 186 3.5 7.0 0.00 0.00 0.00 37 1018.9
20190420183737 77 205 3.5 7.0 0.00 0.00 0.00 38 1019.0
20190420183647 77 244 3.5 7.0 0.00 0.00 0.00 39 1019.0
20190420183540 77 169 4.3 7.0 0.00 0.00 0.00 37 1019.0
20190420183430 76 161 3.5 7.0 0.00 0.00 0.00 38 1019.0
20190420183342 76 205 3.5 7.0 0.00 0.00 0.00 39 1019.0
20190420183234 76 233 3.5 7.8 0.00 0.00 0.00 38 1019.0
20190420183147 76 107 3.5 7.8 0.00 0.00 0.00 37 1019.1
20190420183032 76 162 2.6 8.7 0.00 0.00 0.00 38 1019.1
20190420182943 76 180 2.6 8.7 0.00 0.00 0.00 39 1019.1
20190420182836 76 144 3.5 8.7 0.00 0.00 0.00 36 1019.2
20190420182730 76 174 3.5 8.7 0.00 0.00 0.00 37 1019.2
20190420182642 76 211 4.3 8.7 0.00 0.00 0.00 37 1019.2
20190420182530 76 171 4.3 8.7 0.00 0.00 0.00 37 1019.2
20190420182441 76 174 4.3 8.7 0.00 0.00 0.00 38 1019.2
20190420182332 76 210 4.3 8.7 0.00 0.00 0.00 37 1019.2
20190420182244 76 169 4.3 10.4 0.00 0.00 0.00 39 1019.2
20190420182136 76 145 4.3 10.4 0.00 0.00 0.00 38 1019.3
20190420182043 76 180 3.5 10.4 0.00 0.00 0.00 38 1019.3
20190420181936 76 169 2.6 10.4 0.00 0.00 0.00 36 1019.3
20190420181831 76 230 2.6 10.4 0.00 0.00 0.00 37 1019.3
20190420181742 76 175 2.6 10.4 0.00 0.00 0.00 35 1019.3
20190420181634 76 128 2.6 10.4 0.00 0.00 0.00 36 1019.3
20190420181542 76 153 2.6 10.4 0.00 0.00 0.00 37 1019.4
20190420181433 76 304 4.3 10.4 0.00 0.00 0.00 37 1019.4
20190420181343 75 150 5.2 10.4 0.00 0.00 0.00 36 1019.4
20190420181236 76 252 5.2 10.4 0.00 0.00 0.00 36 1019.4
20190420181148 76 174 4.3 10.4 0.00 0.00 0.00 35 1019.4
20190420181039 76 213 3.5 10.4 0.00 0.00 0.00 37 1019.4
20190420180940 76 167 4.3 10.4 0.00 0.00 0.00 36 1019.4
20190420180831 76 194 4.3 10.4 0.00 0.00 0.00 36 1019.4
20190420180743 76 219 4.3 10.4 0.00 0.00 0.00 36 1019.4
20190420180636 76 167 4.3 10.4 0.00 0.00 0.00 36 1019.4
20190420180542 76 227 4.3 10.4 0.00 0.00 0.00 38 1019.4
20190420180435 76 226 4.3 10.4 0.00 0.00 0.00 36 1019.4
20190420180346 76 266 3.5 8.7 0.00 0.00 0.00 36 1019.3
20190420180239 76 96 3.5 8.7 0.00 0.00 0.00 37 1019.4
20190420180135 76 197 3.5 8.7 0.00 0.00 0.00 35 1019.4
20190420180042 76 219 3.5 8.7 0.00 0.00 0.00 36 1019.3
20190420175931 76 222 3.5 8.7 0.00 0.00 0.00 37 1019.4
20190420175844 76 186 3.5 8.7 0.00 0.00 0.00 36 1019.4
20190420175736 76 225 3.5 7.8 0.00 0.00 0.00 37 1019.4
20190420175628 76 265 2.6 8.7 0.00 0.00 0.00 37 1019.4
20190420175536 76 221 3.5 8.7 0.00 0.00 0.00 38 1019.4
20190420175447 76 122 2.6 8.7 0.00 0.00 0.00 38 1019.4
20190420175342 76 225 1.7 8.7 0.00 0.00 0.00 38 1019.4
20190420175235 76 148 2.6 8.7 0.00 0.00 0.00 38 1019.4
20190420175146 75 239 2.6 8.7 0.00 0.00 0.00 37 1019.5
20190420175033 75 176 3.5 8.7 0.00 0.00 0.00 37 1019.4
20190420174945 75 184 3.5 8.7 0.00 0.00 0.00 37 1019.4
20190420174837 75 235 3.5 8.7 0.00 0.00 0.00 37 1019.4
20190420174730 75 172 3.5 7.8 0.00 0.00 0.00 38 1019.4
20190420174643 75 240 3.5 7.8 0.00 0.00 0.00 37 1019.4
20190420174533 75 189 2.6 7.8 0.00 0.00 0.00 39 1019.5
20190420174444 75 257 1.7 7.8 0.00 0.00 0.00 39 1019.5
20190420174336 75 158 1.7 7.8 0.00 0.00 0.00 35 1019.5
20190420174247 75 178 3.5 7.8 0.00 0.00 0.00 36 1019.5
20190420174139 75 220 3.5 7.8 0.00 0.00 0.00 38 1019.7
20190420174046 75 240 2.6 7.8 0.00 0.00 0.00 37 1019.6
20190420173939 75 165 2.6 7.8 0.00 0.00 0.00 38 1019.6
20190420173831 75 210 1.7 7.8 0.00 0.00 0.00 40 1019.6
20190420173742 75 239 1.7 7.8 0.00 0.00 0.00 37 1019.6
20190420173639 75 183 1.7 7.8 0.00 0.00 0.00 36 1019.7
20190420173546 75 179 1.7 7.8 0.00 0.00 0.00 37 1019.6
20190420173438 75 221 2.6 7.8 0.00 0.00 0.00 36 1019.6
20190420173328 75 221 3.5 7.8 0.00 0.00 0.00 37 1019.6
20190420173240 74 258 2.6 6.1 0.00 0.00 0.00 38 1019.6
20190420173131 74 162 1.7 6.1 0.00 0.00 0.00 39 1019.6
20190420173039 74 206 1.7 7.0 0.00 0.00 0.00 38 1019.6
20190420172930 74 178 2.6 7.0 0.00 0.00 0.00 38 1019.7
20190420172845 74 240 2.6 7.0 0.00 0.00 0.00 38 1019.7
20190420172736 74 139 2.6 7.0 0.00 0.00 0.00 40 1019.7
20190420172628 74 179 2.6 7.0 0.00 0.00 0.00 38 1019.8
20190420172534 74 191 2.6 7.0 0.00 0.00 0.00 38 1019.8
20190420172446 74 168 2.6 7.0 0.00 0.00 0.00 37 1019.8
20190420172337 74 169 3.5 7.8 0.00 0.00 0.00 38 1019.8
20190420172228 74 165 3.5 7.8 0.00 0.00 0.00 38 1019.9
20190420172140 74 218 3.5 7.8 0.00 0.00 0.00 38 1019.9
20190420172031 74 263 3.5 7.8 0.00 0.00 0.00 39 1019.9
20190420171942 73 153 2.6 7.8 0.00 0.00 0.00 39 1019.9
20190420171835 73 162 2.6 7.8 0.00 0.00 0.00 37 1019.9
20190420171747 73 236 2.6 7.8 0.00 0.00 0.00 37 1019.9
20190420171640 73 200 3.5 7.8 0.00 0.00 0.00 36 1020.1
20190420171444 73 208 2.6 7.0 0.00 0.00 0.00 38 1020.1
20190420171336 73 175 1.7 7.0 0.00 0.00 0.00 40 1020.0
20190420171232 73 167 3.5 7.0 0.00 0.00 0.00 37 1020.1
20190420171143 73 263 3.5 7.8 0.00 0.00 0.00 36 1020.1
20190420171031 73 232 2.6 7.8 0.00 0.00 0.00 38 1020.1
20190420170942 73 150 3.5 8.7 0.00 0.00 0.00 39 1020.1
20190420170835 73 220 2.6 8.7 0.00 0.00 0.00 39 1020.2
20190420170747 73 177 1.7 8.7 0.00 0.00 0.00 39 1020.1
20190420170639 73 159 2.6 8.7 0.00 0.00 0.00 40 1020.2
20190420170546 73 167 1.7 8.7 0.00 0.00 0.00 38 1020.2
20190420170438 73 154 2.6 8.7 0.00 0.00 0.00 38 1020.2
20190420170335 73 205 4.3 8.7 0.00 0.00 0.00 37 1020.2
20190420170246 73 181 4.3 8.7 0.00 0.00 0.00 37 1020.3
20190420170137 73 146 3.5 7.0 0.00 0.00 0.00 37 1020.3
20190420170045 73 154 3.5 7.0 0.00 0.00 0.00 37 1020.3
20190420165935 73 302 3.5 7.0 0.00 0.00 0.00 37 1020.3
20190420165828 73 141 3.5 7.0 0.00 0.00 0.00 38 1020.3
20190420165740 73 162 2.6 7.0 0.00 0.00 0.00 37 1020.3
20190420165631 73 175 0.9 5.2 0.00 0.00 0.00 40 1020.3
20190420165542 73 177 1.7 5.2 0.00 0.00 0.00 37 1020.3
20190420165434 73 236 1.7 5.2 0.00 0.00 0.00 38 1020.3
20190420165345 73 167 1.7 5.2 0.00 0.00 0.00 40 1020.3
20190420165237 72 165 0.9 5.2 0.00 0.00 0.00 39 1020.4
20190420165128 72 191 0.0 5.2 0.00 0.00 0.00 39 1020.4
20190420165035 72 165 1.7 6.1 0.00 0.00 0.00 40 1020.4
20190420164947 72 174 2.6 6.1 0.00 0.00 0.00 39 1020.5
20190420164839 72 172 1.7 6.1 0.00 0.00 0.00 38 1020.5
20190420164735 72 156 0.9 6.1 0.00 0.00 0.00 39 1020.4
20190420164647 72 180 0.9 7.8 0.00 0.00 0.00 39 1020.5
20190420164536 72 152 0.9 7.8 0.00 0.00 0.00 39 1020.5
20190420164444 72 280 1.7 7.8 0.00 0.00 0.00 40 1020.5
20190420164336 71 253 2.6 7.8 0.00 0.00 0.00 39 1020.5
20190420164228 71 169 1.7 7.8 0.00 0.00 0.00 41 1020.5
20190420164140 71 252 2.6 7.8 0.00 0.00 0.00 38 1020.5
20190420164046 71 150 2.6 7.8 0.00 0.00 0.00 38 1020.5
20190420163938 71 164 3.5 7.8 0.00 0.00 0.00 38 1020.5
20190420163834 71 174 3.5 7.8 0.00 0.00 0.00 40 1020.5
20190420163745 71 143 2.6 7.0 0.00 0.00 0.00 40 1020.5
20190420163637 71 183 1.7 7.0 0.00 0.00 0.00 40 1020.5
20190420163543 71 165 1.7 7.0 0.00 0.00 0.00 39 1020.5
20190420163436 71 192 2.6 7.0 0.00 0.00 0.00 40 1020.6
20190420163347 71 164 3.5 7.0 0.00 0.00 0.00 38 1020.6
20190420163259 71 148 3.5 8.7 0.00 0.00 0.00 39 1020.6
20190420163212 71 153 2.6 8.7 0.00 0.00 0.00 38 1020.6
20190420162943 71 231 1.7 8.7 0.00 0.00 0.00 40 1020.6
20190420162838 71 153 1.7 8.7 0.00 0.00 0.00 39 1020.6
20190420162731 71 181 0.9 8.7 0.00 0.00 0.00 40 1020.6
20190420162642 71 170 1.7 8.7 0.00 0.00 0.00 40 1020.6
20190420162529 71 168 2.6 8.7 0.00 0.00 0.00 38 1020.6
20190420162441 71 145 2.6 7.0 0.00 0.00 0.00 39 1020.6
20190420162334 71 181 2.6 7.0 0.00 0.00 0.00 38 1020.6
20190420162244 70 176 2.6 6.1 0.00 0.00 0.00 40 1020.6
20190420162136 70 166 2.6 6.1 0.00 0.00 0.00 40 1020.6
20190420162047 70 180 2.6 5.2 0.00 0.00 0.00 41 1020.6
20190420161939 70 162 2.6 8.7 0.00 0.00 0.00 40 1020.6
20190420161831 70 185 2.6 8.7 0.00 0.00 0.00 40 1020.6
20190420161744 70 188 1.7 8.7 0.00 0.00 0.00 41 1020.6
20190420161636 70 152 2.6 8.7 0.00 0.00 0.00 40 1020.6
20190420161544 70 165 2.6 8.7 0.00 0.00 0.00 39 1020.7
20190420161434 70 143 1.7 8.7 0.00 0.00 0.00 41 1020.7
20190420161345 70 238 1.7 8.7 0.00 0.00 0.00 40 1020.7
20190420161240 70 209 2.6 8.7 0.00 0.00 0.00 39 1020.7
20190420161132 70 194 2.6 8.7 0.00 0.00 0.00 41 1020.7
20190420161039 70 142 2.6 6.1 0.00 0.00 0.00 40 1020.7
20190420160930 70 183 3.5 6.1 0.00 0.00 0.00 41 1020.7
20190420160843 70 162 2.6 6.1 0.00 0.00 0.00 39 1020.7
20190420160734 70 152 2.6 7.0 0.00 0.00 0.00 42 1020.8
20190420160646 70 169 2.6 7.0 0.00 0.00 0.00 41 1020.7
20190420160532 69 177 2.6 7.0 0.00 0.00 0.00 39 1020.7
20190420160428 69 179 2.6 7.0 0.00 0.00 0.00 42 1020.7
20190420160340 69 174 3.5 7.0 0.00 0.00 0.00 40 1020.7
20190420160232 69 165 2.6 7.8 0.00 0.00 0.00 40 1020.7
20190420160146 69 123 1.7 7.8 0.00 0.00 0.00 41 1020.7
20190420160031 69 150 2.6 7.8 0.00 0.00 0.00 41 1020.7
20190420155938 69 168 3.5 7.8 0.00 0.00 0.00 41 1020.7
20190420155831 69 174 3.5 7.8 0.00 0.00 0.00 41 1020.7
20190420155742 69 198 1.7 7.8 0.00 0.00 0.00 41 1020.7
20190420155634 69 162 2.6 7.8 0.00 0.00 0.00 42 1020.7
20190420155543 69 187 2.6 7.8 0.00 0.00 0.00 41 1020.7
20190420155435 69 153 1.7 7.8 0.00 0.00 0.00 42 1020.7
20190420155347 69 191 1.7 7.8 0.00 0.00 0.00 44 1020.7
20190420155240 69 134 0.9 4.3 0.00 0.00 0.00 44 1020.8
20190420155131 69 172 1.7 4.3 0.00 0.00 0.00 44 1020.7
20190420155038 69 162 0.9 4.3 0.00 0.00 0.00 45 1020.7
20190420154931 69 191 0.9 4.3 0.00 0.00 0.00 45 1020.8
20190420154842 69 186 0.9 5.2 0.00 0.00 0.00 45 1020.8
20190420154737 68 162 0.0 5.2 0.00 0.00 0.00 47 1020.9
20190420154629 68 169 0.9 6.1 0.00 0.00 0.00 44 1020.9
20190420154538 68 155 0.9 6.1 0.00 0.00 0.00 44 1020.9
20190420154428 68 216 0.9 6.1 0.00 0.00 0.00 45 1020.8
20190420154339 68 218 0.9 6.1 0.00 0.00 0.00 46 1020.8
20190420154231 68 176 2.6 7.0 0.00 0.00 0.00 43 1020.8
20190420154143 68 203 2.6 7.0 0.00 0.00 0.00 42 1020.8
20190420154030 68 148 2.6 7.0 0.00 0.00 0.00 42 1020.8
20190420153943 67 233 2.6 7.0 0.00 0.00 0.00 43 1020.8
20190420153839 67 171 2.6 7.0 0.00 0.00 0.00 41 1020.8
20190420153731 67 111 1.7 7.0 0.00 0.00 0.00 43 1020.8
20190420153642 67 173 1.7 7.0 0.00 0.00 0.00 44 1020.8
20190420153529 67 174 2.6 7.0 0.00 0.00 0.00 44 1020.9
20190420153441 67 165 1.7 7.0 0.00 0.00 0.00 44 1020.9
20190420153332 67 166 1.7 6.1 0.00 0.00 0.00 45 1020.9
20190420153244 67 241 2.6 6.1 0.00 0.00 0.00 44 1020.9
20190420153137 67 176 2.6 7.0 0.00 0.00 0.00 44 1020.8
20190420153047 67 158 0.9 7.0 0.00 0.00 0.00 43 1020.7
20190420152934 67 171 1.7 7.8 0.00 0.00 0.00 44 1020.8
20190420152846 67 172 2.6 7.8 0.00 0.00 0.00 44 1020.8
20190420152738 67 167 2.6 7.8 0.00 0.00 0.00 44 1020.8
20190420152629 66 160 1.7 7.8 0.00 0.00 0.00 44 1020.8
20190420152535 66 169 0.9 7.8 0.00 0.00 0.00 45 1020.8
20190420152446 66 256 1.7 7.8 0.00 0.00 0.00 44 1020.8
20190420152337 66 175 2.6 7.8 0.00 0.00 0.00 44 1020.8
20190420152234 66 198 3.5 7.8 0.00 0.00 0.00 43 1020.8
20190420152145 66 111 3.5 7.8 0.00 0.00 0.00 43 1020.8
20190420152032 66 194 2.6 7.8 0.00 0.00 0.00 43 1020.7
20190420151944 66 171 2.6 7.8 0.00 0.00 0.00 44 1020.7
20190420151835 66 204 3.5 8.7 0.00 0.00 0.00 43 1020.9
20190420151747 66 165 2.6 8.7 0.00 0.00 0.00 43 1020.8
20190420151639 66 168 2.6 8.7 0.00 0.00 0.00 43 1020.7
20190420151548 66 159 2.6 8.7 0.00 0.00 0.00 44 1020.8
20190420151437 66 193 2.6 8.7 0.00 0.00 0.00 44 1020.7
20190420151333 66 205 3.5 8.7 0.00 0.00 0.00 46 1020.7
20190420151244 66 175 3.5 8.7 0.00 0.00 0.00 46 1020.8
20190420151136 66 168 2.6 8.7 0.00 0.00 0.00 47 1020.8
20190420151043 66 220 2.6 8.7 0.00 0.00 0.00 48 1020.8
20190420150936 66 169 2.6 8.7 0.00 0.00 0.00 47 1020.7
20190420150847 66 172 2.6 8.7 0.00 0.00 0.00 46 1020.7
20190420150738 65 155 2.6 8.7 0.00 0.00 0.00 46 1020.8
20190420150631 65 224 3.5 8.7 0.00 0.00 0.00 45 1020.7
20190420150542 65 155 3.5 8.7 0.00 0.00 0.00 45 1020.7
20190420150433 65 189 2.6 8.7 0.00 0.00 0.00 46 1020.7
20190420150345 65 143 3.5 8.7 0.00 0.00 0.00 46 1020.8
20190420150237 65 118 2.6 8.7 0.00 0.00 0.00 47 1020.7
20190420150128 65 211 0.9 6.1 0.00 0.00 0.00 48 1020.7
20190420150037 65 250 1.7 6.1 0.00 0.00 0.00 47 1020.7
20190420145947 65 173 2.6 6.1 0.00 0.00 0.00 46 1020.7
20190420145838 65 224 1.7 5.2 0.00 0.00 0.00 46 1020.7
20190420145734 65 165 1.7 5.2 0.00 0.00 0.00 47 1020.7
20190420145646 65 178 1.7 5.2 0.00 0.00 0.00 46 1020.7
20190420145532 65 189 0.9 4.3 0.00 0.00 0.00 48 1020.7
20190420145444 65 183 0.9 4.3 0.00 0.00 0.00 49 1020.7
20190420145336 64 161 1.7 4.3 0.00 0.00 0.00 48 1020.7
20190420145228 64 189 1.7 4.3 0.00 0.00 0.00 48 1020.7
20190420145139 64 179 1.7 3.5 0.00 0.00 0.00 49 1020.7
20190420145046 64 212 0.9 4.3 0.00 0.00 0.00 50 1020.7
20190420144937 64 120 0.9 4.3 0.00 0.00 0.00 50 1020.7
20190420144833 64 205 0.9 4.3 0.00 0.00 0.00 50 1020.7
20190420144745 64 187 0.9 4.3 0.00 0.00 0.00 50 1020.7
20190420144637 64 122 0.9 4.3 0.00 0.00 0.00 52 1020.7
20190420144546 64 165 0.0 4.3 0.00 0.00 0.00 52 1020.7
20190420144456 63 179 0.9 4.3 0.00 0.00 0.00 51 1020.7
20190420144408 63 188 0.9 4.3 0.00 0.00 0.00 52 1020.8
20190420144229 63 173 0.9 4.3 0.00 0.00 0.00 52 1020.7
20190420144141 63 179 0.0 4.3 0.00 0.00 0.00 52 1020.7
20190420144028 63 229 0.9 4.3 0.00 0.00 0.00 52 1020.7
20190420143942 63 157 1.7 4.3 0.00 0.00 0.00 53 1020.7
20190420143833 63 156 0.9 4.3 0.00 0.00 0.00 53 1020.7
20190420143745 63 200 0.9 4.3 0.00 0.00 0.00 53 1020.6
20190420143638 62 162 0.9 5.2 0.00 0.00 0.00 53 1020.6
20190420143544 62 216 0.9 5.2 0.00 0.00 0.00 55 1020.6
20190420143435 62 261 0.9 5.2 0.00 0.00 0.00 54 1020.6
20190420143347 62 187 0.9 5.2 0.00 0.00 0.00 54 1020.6
20190420143239 62 148 0.9 5.2 0.00 0.00 0.00 55 1020.6
20190420143134 62 183 0.9 5.2 0.00 0.00 0.00 57 1020.6
20190420143042 61 247 0.9 5.2 0.00 0.00 0.00 56 1020.6
20190420142932 61 179 1.7 5.2 0.00 0.00 0.00 55 1020.6
20190420142843 61 149 2.6 5.2 0.00 0.00 0.00 54 1020.6
20190420142735 61 174 1.7 5.2 0.00 0.00 0.00 53 1020.5
20190420142647 61 232 1.7 4.3 0.00 0.00 0.00 55 1020.5
20190420142534 61 200 1.7 4.3 0.00 0.00 0.00 55 1020.5
20190420142445 61 155 0.9 4.3 0.00 0.00 0.00 55 1020.5
20190420142337 61 196 0.9 4.3 0.00 0.00 0.00 56 1020.5
20190420142234 61 162 1.7 4.3 0.00 0.00 0.00 57 1020.5
20190420142144 61 239 0.9 4.3 0.00 0.00 0.00 56 1020.5
20190420142031 61 202 0.9 4.3 0.00 0.00 0.00 57 1020.5
20190420141942 60 166 0.9 4.3 0.00 0.00 0.00 58 1020.5
20190420141834 60 178 0.9 4.3 0.00 0.00 0.00 57 1020.5
20190420141745 60 181 1.7 4.3 0.00 0.00 0.00 57 1020.6
20190420141637 60 187 1.7 4.3 0.00 0.00 0.00 58 1020.6
20190420141545 60 148 0.9 6.1 0.00 0.00 0.00 58 1020.5
20190420141439 60 178 0.9 6.1 0.00 0.00 0.00 58 1020.5
20190420141331 60 164 0.9 6.1 0.00 0.00 0.00 59 1020.5
20190420141242 60 172 1.7 6.1 0.00 0.00 0.00 57 1020.5
20190420141134 59 176 1.7 6.1 0.00 0.00 0.00 57 1020.4
20190420141040 59 270 2.6 6.1 0.00 0.00 0.00 57 1020.4
20190420140932 59 217 1.7 6.1 0.00 0.00 0.00 56 1020.4
20190420140844 59 177 2.6 6.1 0.00 0.00 0.00 56 1020.4
20190420140736 59 179 2.6 6.1 0.00 0.00 0.00 55 1020.3
20190420140631 59 144 1.7 5.2 0.00 0.00 0.00 57 1020.4
20190420140538 59 160 2.6 5.2 0.00 0.00 0.00 57 1020.4
20190420140429 59 243 2.6 5.2 0.00 0.00 0.00 59 1020.4
20190420140341 59 198 2.6 5.2 0.00 0.00 0.00 58 1020.4
20190420140233 58 172 2.6 4.3 0.00 0.00 0.00 58 1020.4
20190420140146 58 150 1.7 4.3 0.00 0.00 0.00 60 1020.4
20190420140031 58 228 0.9 4.3 0.00 0.00 0.00 62 1020.4
20190420135942 58 226 0.9 4.3 0.00 0.00 0.00 61 1020.4
20190420135834 58 152 0.9 4.3 0.00 0.00 0.00 61 1020.4
20190420135729 58 160 0.9 4.3 0.00 0.00 0.00 62 1020.4
20190420135641 58 174 0.9 4.3 0.00 0.00 0.00 61 1020.4
20190420135528 58 174 0.9 4.3 0.00 0.00 0.00 61 1020.4
20190420135440 58 176 0.9 4.3 0.00 0.00 0.00 62 1020.4
20190420135331 57 179 0.9 3.5 0.00 0.00 0.00 61 1020.4
20190420135243 57 266 0.0 3.5 0.00 0.00 0.00 62 1020.4
20190420135136 57 160 0.0 3.5 0.00 0.00 0.00 62 1020.4
20190420135042 57 207 0.9 3.5 0.00 0.00 0.00 61 1020.4
20190420134938 57 167 1.7 3.5 0.00 0.00 0.00 61 1020.4
20190420134830 57 162 0.9 3.5 0.00 0.00 0.00 61 1020.4
20190420134741 57 174 0.9 3.5 0.00 0.00 0.00 61 1020.4
20190420134633 57 218 1.7 3.5 0.00 0.00 0.00 60 1020.3
20190420134542 57 160 1.7 3.5 0.00 0.00 0.00 60 1020.3
20190420134432 57 177 0.9 3.5 0.00 0.00 0.00 61 1020.3
20190420134343 57 176 0.9 3.5 0.00 0.00 0.00 61 1020.3
20190420134235 57 169 1.7 3.5 0.00 0.00 0.00 62 1020.3
20190420134131 57 200 0.9 3.5 0.00 0.00 0.00 62 1020.3
20190420134038 56 200 0.9 3.5 0.00 0.00 0.00 62 1020.3
20190420133930 56 181 0.9 2.6 0.00 0.00 0.00 64 1020.3
20190420133843 56 217 1.7 2.6 0.00 0.00 0.00 62 1020.3
20190420133734 56 165 0.9 2.6 0.00 0.00 0.00 62 1020.2
20190420133646 56 188 0.9 1.7 0.00 0.00 0.00 62 1020.3
20190420133532 56 169 0.0 1.7 0.00 0.00 0.00 62 1020.3
20190420133444 56 168 0.0 1.7 0.00 0.00 0.00 62 1020.3
20190420133335 56 169 0.0 1.7 0.00 0.00 0.00 62 1020.3
20190420133231 56 170 0.0 1.7 0.00 0.00 0.00 61 1020.2
20190420133144 56 170 0.9 1.7 0.00 0.00 0.00 61 1020.2
20190420133029 55 233 0.0 1.7 0.00 0.00 0.00 61 1020.3
20190420132940 55 187 0.0 2.6 0.00 0.00 0.00 61 1020.3
20190420132832 55 163 0.0 2.6 0.00 0.00 0.00 62 1020.2
20190420132744 55 164 0.0 2.6 0.00 0.00 0.00 61 1020.2
20190420132635 55 163 0.9 2.6 0.00 0.00 0.00 61 1020.2
20190420132543 55 169 0.9 2.6 0.00 0.00 0.00 61 1020.2
20190420132439 55 144 0.9 2.6 0.00 0.00 0.00 61 1020.1
20190420132330 55 166 0.0 2.6 0.00 0.00 0.00 61 1020.1
20190420132242 55 169 0.9 2.6 0.00 0.00 0.00 61 1020.1
20190420132133 55 183 0.9 2.6 0.00 0.00 0.00 61 1020.2
20190420132040 55 160 0.0 1.7 0.00 0.00 0.00 62 1020.1
20190420131932 55 191 0.0 2.6 0.00 0.00 0.00 61 1020.1
20190420131845 55 169 0.0 2.6 0.00 0.00 0.00 62 1020.1
20190420131737 55 159 0.0 2.6 0.00 0.00 0.00 62 1020.1
20190420131633 55 170 0.0 2.6 0.00 0.00 0.00 62 1020.0
20190420131540 54 179 0.9 2.6 0.00 0.00 0.00 61 1020.0
20190420131431 54 158 0.9 2.6 0.00 0.00 0.00 62 1020.1
20190420131343 54 157 0.0 2.6 0.00 0.00 0.00 62 1020.1
20190420131235 54 173 0.9 2.6 0.00 0.00 0.00 62 1020.1
20190420131147 54 167 0.9 2.6 0.00 0.00 0.00 62 1020.1
20190420131034 54 161 0.0 1.7 0.00 0.00 0.00 63 1020.0
20190420130945 54 155 0.0 1.7 0.00 0.00 0.00 62 1020.0
20190420130837 54 155 0.0 1.7 0.00 0.00 0.00 62 1020.0
20190420130733 54 158 0.0 1.7 0.00 0.00 0.00 62 1020.0
20190420130645 54 158 0.0 1.7 0.00 0.00 0.00 62 1019.9
20190420130532 54 207 0.0 1.7 0.00 0.00 0.00 62 1019.9
20190420130444 54 207 0.0 1.7 0.00 0.00 0.00 62 1019.9
20190420130336 54 235 0.0 1.7 0.00 0.00 0.00 62 1019.8
20190420130247 54 161 0.0 1.7 0.00 0.00 0.00 62 1019.9
20190420130139 53 161 0.0 1.7 0.00 0.00 0.00 62 1019.8
20190420130046 53 171 0.0 1.7 0.00 0.00 0.00 62 1019.8
20190420125940 53 217 0.0 1.7 0.00 0.00 0.00 62 1019.8
20190420125832 53 152 0.0 1.7 0.00 0.00 0.00 61 1019.7
20190420125744 53 152 0.0 1.7 0.00 0.00 0.00 62 1019.7
20190420125637 53 152 0.9 1.7 0.00 0.00 0.00 62 1019.7
20190420125543 53 152 0.9 1.7 0.00 0.00 0.00 61 1019.7
20190420125435 53 152 0.0 0.9 0.00 0.00 0.00 61 1019.7
20190420125346 53 152 0.0 0.9 0.00 0.00 0.00 62 1019.7
20190420125238 53 152 0.0 0.9 0.00 0.00 0.00 61 1019.7
20190420125134 53 152 0.0 0.9 0.00 0.00 0.00 61 1019.7
20190420125040 53 152 0.0 0.9 0.00 0.00 0.00 61 1019.7
20190420124932 53 152 0.0 0.9 0.00 0.00 0.00 61 1019.7
20190420124844 53 152 0.0 0.9 0.00 0.00 0.00 61 1019.7
20190420124735 53 152 0.0 0.9 0.00 0.00 0.00 61 1019.7
20190420124647 53 152 0.0 0.9 0.00 0.00 0.00 61 1019.6
20190420124535 53 152 0.0 0.9 0.00 0.00 0.00 61 1019.6
20190420124445 53 152 0.0 0.9 0.00 0.00 0.00 60 1019.6
20190420124336 53 152 0.0 0.9 0.00 0.00 0.00 60 1019.7
20190420124232 53 152 0.0 0.0 0.00 0.00 0.00 61 1019.6
20190420124144 53 152 0.0 0.0 0.00 0.00 0.00 60 1019.6
20190420124030 53 152 0.0 0.0 0.00 0.00 0.00 60 1019.6
20190420123942 53 152 0.0 0.0 0.00 0.00 0.00 60 1019.6
20190420123832 53 152 0.0 0.0 0.00 0.00 0.00 60 1019.6
20190420123744 53 152 0.0 0.0 0.00 0.00 0.00 60 1019.6
20190420123637 53 152 0.0 0.0 0.00 0.00 0.00 60 1019.6
20190420123543 53 152 0.0 0.0 0.00 0.00 0.00 60 1019.6
20190420123438 53 152 0.0 0.0 0.00 0.00 0.00 60 1019.6
20190420123330 53 152 0.0 0.0 0.00 0.00 0.00 60 1019.5
20190420123242 52 152 0.0 0.0 0.00 0.00 0.00 60 1019.5
20190420123134 52 152 0.0 0.0 0.00 0.00 0.00 60 1019.5
20190420123043 52 152 0.0 0.0 0.00 0.00 0.00 60 1019.5
20190420122933 52 152 0.0 0.0 0.00 0.00 0.00 60 1019.6
20190420122846 52 152 0.0 0.0 0.00 0.00 0.00 60 1019.5
20190420122738 52 152 0.0 0.0 0.00 0.00 0.00 60 1019.5
20190420122634 52 152 0.0 0.0 0.00 0.00 0.00 60 1019.5
20190420122540 52 152 0.0 0.0 0.00 0.00 0.00 60 1019.6
20190420122432 52 152 0.0 0.0 0.00 0.00 0.00 60 1019.5
20190420122345 52 152 0.0 0.0 0.00 0.00 0.00 60 1019.5
20190420122236 52 152 0.0 0.0 0.00 0.00 0.00 60 1019.5
20190420122128 52 152 0.0 0.0 0.00 0.00 0.00 60 1019.5
20190420122035 52 152 0.0 0.0 0.00 0.00 0.00 60 1019.5
20190420121947 52 152 0.0 0.0 0.00 0.00 0.00 60 1019.5
20190420121839 52 152 0.0 0.0 0.00 0.00 0.00 60 1019.4
20190420121735 52 152 0.0 0.0 0.00 0.00 0.00 60 1019.4
20190420121648 52 152 0.0 0.0 0.00 0.00 0.00 60 1019.4
20190420121532 52 152 0.0 0.0 0.00 0.00 0.00 60 1019.3
20190420121445 52 152 0.0 0.0 0.00 0.00 0.00 60 1019.3
20190420121336 52 152 0.0 0.0 0.00 0.00 0.00 60 1019.3
20190420121228 52 152 0.0 0.0 0.00 0.00 0.00 60 1019.3
20190420121140 52 152 0.0 0.0 0.00 0.00 0.00 60 1019.3
20190420121047 52 152 0.0 0.0 0.00 0.00 0.00 60 1019.3
20190420120943 52 152 0.0 0.9 0.00 0.00 0.00 60 1019.3
20190420120834 52 152 0.0 0.9 0.00 0.00 0.00 60 1019.2
20190420120747 52 152 0.0 0.9 0.00 0.00 0.00 60 1019.2
20190420120639 52 152 0.0 0.9 0.00 0.00 0.00 60 1019.2
20190420120546 52 152 0.0 0.9 0.00 0.00 0.00 60 1019.2
20190420120438 52 152 0.0 0.9 0.00 0.00 0.00 60 1019.2
20190420120329 52 152 0.0 0.9 0.00 0.00 0.00 60 1019.1
20190420120242 52 152 0.0 0.9 0.00 0.00 0.00 60 1019.1
20190420120138 52 152 0.0 0.9 0.00 0.00 0.00 60 1019.1
20190420120046 52 152 0.0 0.0 0.00 0.00 0.00 60 1019.1
20190420115937 52 152 0.0 0.0 0.00 0.00 0.00 60 1019.1
20190420115829 52 152 0.0 0.0 0.00 0.00 0.00 60 1019.1
20190420115741 52 152 0.0 0.9 0.00 0.00 0.00 60 1019.1
20190420115633 52 152 0.0 0.9 0.00 0.00 0.00 60 1019.1
20190420115540 52 152 0.0 0.9 0.00 0.00 0.00 60 1019.1
20190420115432 52 152 0.0 0.9 0.00 0.00 0.00 60 1019.2
20190420115328 52 152 0.0 0.9 0.00 0.00 0.00 60 1019.2
20190420115240 52 152 0.0 0.9 0.00 0.00 0.00 60 1019.2
20190420115130 52 152 0.0 0.9 0.00 0.00 0.00 60 1019.1
20190420115037 52 152 0.0 0.9 0.00 0.00 0.00 60 1019.1
20190420114929 52 152 0.0 0.9 0.00 0.00 0.00 60 1019.2
20190420114841 52 152 0.0 0.9 0.00 0.00 0.00 60 1019.2
20190420114733 52 152 0.0 0.9 0.00 0.00 0.00 60 1019.2
20190420114647 52 152 0.0 0.9 0.00 0.00 0.00 60 1019.1
20190420114532 52 152 0.0 0.9 0.00 0.00 0.00 60 1019.1
20190420114428 52 152 0.0 0.9 0.00 0.00 0.00 61 1019.2
20190420114341 52 152 0.0 0.9 0.00 0.00 0.00 61 1019.2
20190420114233 52 152 0.0 0.9 0.00 0.00 0.00 61 1019.2
20190420114146 52 152 0.0 0.9 0.00 0.00 0.00 61 1019.1
20190420114033 51 152 0.0 0.0 0.00 0.00 0.00 61 1019.2
20190420113945 51 152 0.0 0.0 0.00 0.00 0.00 61 1019.1
20190420113837 51 152 0.0 0.0 0.00 0.00 0.00 61 1019.1
20190420113729 51 152 0.0 0.0 0.00 0.00 0.00 61 1019.1
20190420113645 51 152 0.0 0.0 0.00 0.00 0.00 61 1019.1
20190420113532 51 152 0.0 0.0 0.00 0.00 0.00 61 1019.1
20190420113444 51 152 0.0 0.9 0.00 0.00 0.00 61 1019.1
20190420113337 51 152 0.0 0.9 0.00 0.00 0.00 61 1019.1
20190420113229 51 152 0.0 0.9 0.00 0.00 0.00 61 1019.1
20190420113142 51 152 0.0 0.9 0.00 0.00 0.00 61 1019.1
20190420113028 51 152 0.0 0.9 0.00 0.00 0.00 61 1019.1
20190420112940 51 152 0.0 0.9 0.00 0.00 0.00 61 1019.1
20190420112837 51 152 0.0 0.9 0.00 0.00 0.00 61 1019.1
20190420112728 51 152 0.0 0.9 0.00 0.00 0.00 61 1019.1
20190420112641 51 152 0.0 0.9 0.00 0.00 0.00 61 1019.1
20190420112528 51 152 0.0 0.0 0.00 0.00 0.00 61 1019.0
20190420112440 51 152 0.0 0.0 0.00 0.00 0.00 61 1019.0
20190420112332 51 152 0.0 0.0 0.00 0.00 0.00 61 1019.0
20190420112244 51 152 0.0 0.0 0.00 0.00 0.00 61 1019.0
20190420112136 51 152 0.0 0.9 0.00 0.00 0.00 61 1019.0
20190420112043 51 152 0.0 0.9 0.00 0.00 0.00 61 1019.0
20190420111939 51 152 0.0 0.9 0.00 0.00 0.00 61 1019.0
20190420111832 51 152 0.0 0.9 0.00 0.00 0.00 61 1018.9
20190420111744 51 152 0.0 0.9 0.00 0.00 0.00 60 1018.9
20190420111635 51 152 0.0 0.9 0.00 0.00 0.00 60 1018.9
20190420111544 51 152 0.0 0.9 0.00 0.00 0.00 60 1018.9
20190420111433 51 152 0.0 0.9 0.00 0.00 0.00 60 1018.8
20190420111344 51 152 0.0 0.0 0.00 0.00 0.00 60 1018.8
20190420111236 51 152 0.0 0.0 0.00 0.00 0.00 60 1018.8
20190420111132 51 152 0.0 0.0 0.00 0.00 0.00 60 1018.8
20190420111038 51 152 0.0 0.0 0.00 0.00 0.00 61 1018.8
20190420110930 51 152 0.0 0.0 0.00 0.00 0.00 60 1018.8
20190420110843 51 152 0.0 0.0 0.00 0.00 0.00 61 1018.8
20190420110734 51 152 0.0 0.0 0.00 0.00 0.00 61 1018.8
20190420110646 51 152 0.0 0.0 0.00 0.00 0.00 61 1018.8
20190420110533 51 152 0.0 0.0 0.00 0.00 0.00 60 1018.8
20190420110445 51 152 0.0 0.0 0.00 0.00 0.00 60 1018.8
20190420110341 51 152 0.0 0.9 0.00 0.00 0.00 60 1018.8
20190420110233 51 152 0.0 0.9 0.00 0.00 0.00 60 1018.8
20190420110146 51 152 0.0 0.9 0.00 0.00 0.00 60 1018.8
20190420110031 51 152 0.0 0.9 0.00 0.00 0.00 60 1018.8
20190420105943 51 152 0.0 0.9 0.00 0.00 0.00 60 1018.8
20190420105835 51 152 0.0 0.9 0.00 0.00 0.00 60 1018.8
20190420105747 51 152 0.0 0.9 0.00 0.00 0.00 60 1018.8
20190420105639 51 152 0.0 0.9 0.00 0.00 0.00 60 1018.7
20190420105530 51 152 0.0 0.9 0.00 0.00 0.00 60 1018.8
20190420105443 51 152 0.0 0.0 0.00 0.00 0.00 61 1018.8
20190420105335 51 152 0.0 0.0 0.00 0.00 0.00 60 1018.8
20190420105247 51 152 0.0 0.0 0.00 0.00 0.00 60 1018.8
20190420105139 51 152 0.0 0.0 0.00 0.00 0.00 60 1018.7
20190420105046 52 152 0.0 0.0 0.00 0.00 0.00 60 1018.7
20190420104938 52 152 0.0 0.0 0.00 0.00 0.00 60 1018.7
20190420104830 52 152 0.0 0.0 0.00 0.00 0.00 60 1018.7
20190420104742 52 152 0.0 0.0 0.00 0.00 0.00 60 1018.7
20190420104638 52 152 0.0 0.0 0.00 0.00 0.00 60 1018.7
20190420104546 52 152 0.0 0.0 0.00 0.00 0.00 60 1018.7
20190420104436 52 152 0.0 0.0 0.00 0.00 0.00 60 1018.8
20190420104328 52 152 0.0 0.0 0.00 0.00 0.00 60 1018.7
20190420104240 52 152 0.0 0.0 0.00 0.00 0.00 60 1018.7
20190420104131 52 152 0.0 0.0 0.00 0.00 0.00 60 1018.7
20190420104038 52 152 0.0 0.0 0.00 0.00 0.00 59 1018.7
20190420103931 52 152 0.0 0.0 0.00 0.00 0.00 59 1018.7
20190420103846 52 152 0.0 0.0 0.00 0.00 0.00 59 1018.7
20190420103738 52 152 0.0 0.0 0.00 0.00 0.00 59 1018.7
20190420103630 52 152 0.0 0.0 0.00 0.00 0.00 58 1018.7
20190420103537 52 152 0.0 0.0 0.00 0.00 0.00 58 1018.7
20190420103429 52 152 0.0 0.0 0.00 0.00 0.00 58 1018.8
20190420103341 52 152 0.0 0.0 0.00 0.00 0.00 58 1018.8
20190420103233 52 152 0.0 0.9 0.00 0.00 0.00 57 1018.8
20190420103145 53 152 0.0 0.9 0.00 0.00 0.00 57 1018.7
20190420103037 53 152 0.0 0.9 0.00 0.00 0.00 57 1018.8
20190420102947 53 152 0.0 0.9 0.00 0.00 0.00 57 1018.8
20190420102840 53 152 0.0 0.9 0.00 0.00 0.00 57 1018.8
20190420102731 53 152 0.0 0.9 0.00 0.00 0.00 57 1018.8
20190420102644 53 152 0.0 0.9 0.00 0.00 0.00 57 1018.8
20190420102531 53 152 0.0 0.9 0.00 0.00 0.00 57 1018.8
20190420102442 53 266 0.0 0.9 0.00 0.00 0.00 57 1018.8
20190420102335 53 269 0.0 0.0 0.00 0.00 0.00 56 1018.8
20190420102230 53 321 0.0 0.0 0.00 0.00 0.00 57 1018.8
20190420102141 53 320 0.0 0.0 0.00 0.00 0.00 56 1018.8
20190420102028 53 320 0.0 0.0 0.00 0.00 0.00 56 1018.7
20190420101940 53 320 0.0 0.0 0.00 0.00 0.00 56 1018.7
20190420101831 53 321 0.0 0.0 0.00 0.00 0.00 56 1018.7
20190420101743 53 321 0.0 0.0 0.00 0.00 0.00 56 1018.7
20190420101635 53 320 0.0 0.0 0.00 0.00 0.00 56 1018.7
20190420101544 53 321 0.0 0.0 0.00 0.00 0.00 56 1018.7
20190420101434 53 321 0.0 0.0 0.00 0.00 0.00 56 1018.7
20190420101331 53 320 0.0 0.0 0.00 0.00 0.00 56 1018.7
20190420101242 53 321 0.0 0.0 0.00 0.00 0.00 56 1018.7
20190420101133 52 320 0.0 0.0 0.00 0.00 0.00 56 1018.7
20190420101040 52 321 0.0 0.0 0.00 0.00 0.00 56 1018.7
20190420100932 52 321 0.0 0.0 0.00 0.00 0.00 56 1018.6
20190420100845 52 321 0.0 0.0 0.00 0.00 0.00 57 1018.6
20190420100736 52 321 0.0 0.0 0.00 0.00 0.00 57 1018.6
20190420100628 52 321 0.0 0.0 0.00 0.00 0.00 56 1018.6
20190420100539 52 320 0.0 0.0 0.00 0.00 0.00 57 1018.6
20190420100431 52 321 0.0 0.0 0.00 0.00 0.00 57 1018.6
20190420100343 52 321 0.0 0.0 0.00 0.00 0.00 57 1018.6
20190420100235 52 321 0.0 0.0 0.00 0.00 0.00 57 1018.6
20190420100148 52 321 0.0 0.0 0.00 0.00 0.00 57 1018.6
20190420100029 52 320 0.0 0.0 0.00 0.00 0.00 57 1018.7
20190420095942 52 321 0.0 0.0 0.00 0.00 0.00 57 1018.7
20190420095835 52 321 0.0 0.0 0.00 0.00 0.00 57 1018.7
20190420095730 52 321 0.0 0.0 0.00 0.00 0.00 57 1018.7
20190420095641 52 321 0.0 0.0 0.00 0.00 0.00 57 1018.7
20190420095528 52 321 0.0 0.0 0.00 0.00 0.00 57 1018.8
20190420095440 52 321 0.0 0.0 0.00 0.00 0.00 57 1018.8
20190420095332 52 321 0.0 0.0 0.00 0.00 0.00 57 1018.8
20190420095245 52 321 0.0 0.0 0.00 0.00 0.00 57 1018.8
20190420095132 52 321 0.0 0.0 0.00 0.00 0.00 57 1018.8
20190420095039 52 320 0.0 0.0 0.00 0.00 0.00 57 1018.8
20190420094930 52 321 0.0 0.0 0.00 0.00 0.00 57 1018.8
20190420094846 52 321 0.0 0.0 0.00 0.00 0.00 57 1018.8
20190420094739 52 321 0.0 0.0 0.00 0.00 0.00 57 1018.8
20190420094630 52 320 0.0 0.0 0.00 0.00 0.00 58 1018.8
20190420094538 52 320 0.0 0.0 0.00 0.00 0.00 57 1018.8
20190420094428 52 321 0.0 0.0 0.00 0.00 0.00 58 1018.8
20190420094341 52 321 0.0 0.0 0.00 0.00 0.00 58 1018.8
20190420094232 52 320 0.0 0.0 0.00 0.00 0.00 58 1018.9
20190420094144 52 321 0.0 0.0 0.00 0.00 0.00 58 1018.9
20190420094035 52 321 0.0 0.0 0.00 0.00 0.00 58 1018.9
20190420093928 52 321 0.0 0.0 0.00 0.00 0.00 58 1018.8
20190420093839 52 320 0.0 0.0 0.00 0.00 0.00 57 1018.8
20190420093731 52 321 0.0 0.0 0.00 0.00 0.00 57 1018.9
20190420093643 52 321 0.0 0.0 0.00 0.00 0.00 58 1018.9
20190420093529 52 321 0.0 0.0 0.00 0.00 0.00 57 1018.9
20190420093442 52 320 0.0 0.0 0.00 0.00 0.00 57 1018.9
20190420093333 52 321 0.0 0.0 0.00 0.00 0.00 58 1018.8
20190420093229 52 321 0.0 0.0 0.00 0.00 0.00 58 1018.8
20190420093142 52 321 0.0 0.0 0.00 0.00 0.00 58 1018.8
20190420093028 52 321 0.0 0.0 0.00 0.00 0.00 58 1018.8
20190420092941 52 321 0.0 0.0 0.00 0.00 0.00 58 1018.8
20190420092834 53 321 0.0 0.0 0.00 0.00 0.00 57 1018.8
20190420092746 53 321 0.0 0.0 0.00 0.00 0.00 57 1018.8
20190420092638 53 321 0.0 0.0 0.00 0.00 0.00 57 1018.8
20190420092545 53 321 0.0 0.0 0.00 0.00 0.00 57 1018.8
20190420092436 53 321 0.0 0.0 0.00 0.00 0.00 57 1018.8
20190420092332 53 320 0.0 0.0 0.00 0.00 0.00 57 1018.8
20190420092245 53 321 0.0 0.0 0.00 0.00 0.00 57 1018.8
20190420092136 53 321 0.0 0.0 0.00 0.00 0.00 57 1018.8
20190420092044 53 320 0.0 0.0 0.00 0.00 0.00 57 1018.7
20190420091936 53 321 0.0 0.0 0.00 0.00 0.00 57 1018.8
20190420091828 53 321 0.0 0.0 0.00 0.00 0.00 57 1018.8
20190420091740 53 321 0.0 0.0 0.00 0.00 0.00 57 1018.8
20190420091631 53 321 0.0 0.0 0.00 0.00 0.00 57 1018.8
20190420091544 53 321 0.0 0.0 0.00 0.00 0.00 57 1018.8
20190420091435 53 321 0.0 0.0 0.00 0.00 0.00 57 1018.8
20190420091346 53 321 0.0 0.0 0.00 0.00 0.00 57 1018.8
20190420091239 53 320 0.0 0.0 0.00 0.00 0.00 57 1018.8
20190420091131 53 321 0.0 0.0 0.00 0.00 0.00 57 1018.8
20190420091037 53 321 0.0 0.0 0.00 0.00 0.00 57 1018.8
20190420090929 53 321 0.0 0.0 0.00 0.00 0.00 57 1018.8
20190420090842 53 320 0.0 0.0 0.00 0.00 0.00 57 1018.8
20190420090738 52 320 0.0 0.0 0.00 0.00 0.00 57 1018.8
20190420090630 52 320 0.0 0.0 0.00 0.00 0.00 57 1018.8
20190420090536 52 321 0.0 0.0 0.00 0.00 0.00 57 1018.8
20190420090447 52 321 0.0 0.0 0.00 0.00 0.00 58 1018.8
20190420090340 52 321 0.0 0.0 0.00 0.00 0.00 58 1018.8
20190420090231 52 321 0.0 0.0 0.00 0.00 0.00 57 1018.7
20190420090145 52 321 0.0 0.0 0.00 0.00 0.00 57 1018.7
20190420090031 52 321 0.0 0.0 0.00 0.00 0.00 57 1018.7
20190420085941 52 321 0.0 0.0 0.00 0.00 0.00 56 1018.7
20190420085837 52 321 0.0 0.0 0.00 0.00 0.00 56 1018.8
20190420085729 52 321 0.0 0.0 0.00 0.00 0.00 56 1018.7
20190420085642 52 321 0.0 0.0 0.00 0.00 0.00 56 1018.7
20190420085529 52 321 0.0 0.0 0.00 0.00 0.00 56 1018.7
20190420085442 52 321 0.0 0.0 0.00 0.00 0.00 56 1018.7
20190420085334 52 321 0.0 0.0 0.00 0.00 0.00 56 1018.6
20190420085244 52 321 0.0 0.0 0.00 0.00 0.00 56 1018.7
20190420085136 52 321 0.0 0.0 0.00 0.00 0.00 56 1018.7
20190420085047 52 321 0.0 0.0 0.00 0.00 0.00 56 1018.7
20190420084939 52 321 0.0 0.0 0.00 0.00 0.00 56 1018.7
20190420084831 52 321 0.0 0.0 0.00 0.00 0.00 56 1018.7
20190420084743 52 321 0.0 0.0 0.00 0.00 0.00 56 1018.7
20190420084635 53 321 0.0 0.0 0.00 0.00 0.00 56 1018.7
20190420084544 53 321 0.0 0.0 0.00 0.00 0.00 56 1018.7
20190420084434 53 321 0.0 0.0 0.00 0.00 0.00 56 1018.7
20190420084346 53 321 0.0 0.0 0.00 0.00 0.00 56 1018.7
20190420084242 53 321 0.0 0.0 0.00 0.00 0.00 56 1018.7
20190420084134 53 321 0.0 0.0 0.00 0.00 0.00 56 1018.7
20190420084041 53 321 0.0 0.0 0.00 0.00 0.00 56 1018.7
20190420083934 53 321 0.0 0.0 0.00 0.00 0.00 56 1018.7
20190420083845 53 321 0.0 0.0 0.00 0.00 0.00 56 1018.7
20190420083737 53 321 0.0 0.0 0.00 0.00 0.00 56 1018.7
20190420083629 53 321 0.0 0.0 0.00 0.00 0.00 56 1018.7
20190420083536 53 321 0.0 0.0 0.00 0.00 0.00 56 1018.7
20190420083432 53 321 0.0 0.0 0.00 0.00 0.00 56 1018.8
20190420083345 53 321 0.0 0.0 0.00 0.00 0.00 56 1018.8
20190420083237 53 321 0.0 0.0 0.00 0.00 0.00 56 1018.8
20190420083129 53 321 0.0 0.0 0.00 0.00 0.00 56 1018.8
20190420083037 53 321 0.0 0.0 0.00 0.00 0.00 56 1018.8
20190420082947 53 321 0.0 0.0 0.00 0.00 0.00 56 1018.8
20190420082840 53 320 0.0 0.0 0.00 0.00 0.00 56 1018.8
20190420082732 53 321 0.0 0.0 0.00 0.00 0.00 56 1018.8
20190420082628 53 320 0.0 0.0 0.00 0.00 0.00 56 1018.8
20190420082535 53 320 0.0 0.0 0.00 0.00 0.00 56 1018.8
20190420082447 53 321 0.0 0.0 0.00 0.00 0.00 56 1018.8
20190420082339 53 321 0.0 0.0 0.00 0.00 0.00 56 1018.8
20190420082232 53 321 0.0 0.0 0.00 0.00 0.00 56 1018.8
20190420082144 53 321 0.0 0.0 0.00 0.00 0.00 56 1018.8
20190420082032 53 320 0.0 0.0 0.00 0.00 0.00 57 1018.8
20190420081943 53 321 0.0 0.0 0.00 0.00 0.00 57 1018.8
20190420081835 53 321 0.0 0.0 0.00 0.00 0.00 57 1018.7
20190420081732 52 321 0.0 0.0 0.00 0.00 0.00 57 1018.8
20190420081645 52 321 0.0 0.0 0.00 0.00 0.00 57 1018.8
20190420081529 52 321 0.0 0.0 0.00 0.00 0.00 58 1018.7
20190420081442 52 320 0.0 0.0 0.00 0.00 0.00 58 1018.7
20190420081335 52 321 0.0 0.0 0.00 0.00 0.00 58 1018.8
20190420081246 52 321 0.0 0.0 0.00 0.00 0.00 57 1018.7
20190420081137 52 321 0.0 0.0 0.00 0.00 0.00 57 1018.8
20190420081045 52 321 0.0 0.0 0.00 0.00 0.00 58 1018.8
20190420080941 52 321 0.0 0.0 0.00 0.00 0.00 58 1018.8
20190420080833 52 321 0.0 0.0 0.00 0.00 0.00 58 1018.8
20190420080743 52 321 0.0 0.0 0.00 0.00 0.00 58 1018.7
20190420080636 52 321 0.0 0.0 0.00 0.00 0.00 58 1018.7
20190420080542 52 321 0.0 0.0 0.00 0.00 0.00 58 1018.7
20190420080435 52 321 0.0 0.0 0.00 0.00 0.00 58 1018.7
20190420080346 52 321 0.0 0.0 0.00 0.00 0.00 58 1018.7
20190420080237 52 321 0.0 0.0 0.00 0.00 0.00 58 1018.7
20190420080132 52 321 0.0 0.0 0.00 0.00 0.00 58 1018.7
20190420080040 52 321 0.0 0.0 0.00 0.00 0.00 58 1018.7
20190420075930 52 321 0.0 0.0 0.00 0.00 0.00 58 1018.7
20190420075842 52 321 0.0 0.0 0.00 0.00 0.00 58 1018.7
20190420075734 52 321 0.0 0.0 0.00 0.00 0.00 58 1018.7
20190420075646 52 321 0.0 0.0 0.00 0.00 0.00 58 1018.7
20190420075533 52 321 0.0 0.0 0.00 0.00 0.00 58 1018.7
20190420075445 52 321 0.0 0.0 0.00 0.00 0.00 58 1018.7
20190420075337 52 321 0.0 0.0 0.00 0.00 0.00 58 1018.7
20190420075233 52 321 0.0 0.0 0.00 0.00 0.00 59 1018.7
20190420075144 52 321 0.0 0.0 0.00 0.00 0.00 59 1018.7
20190420075030 52 320 0.0 0.0 0.00 0.00 0.00 59 1018.7
20190420074942 52 321 0.0 0.0 0.00 0.00 0.00 59 1018.7
20190420074834 52 321 0.0 0.0 0.00 0.00 0.00 59 1018.7
20190420074746 52 321 0.0 0.0 0.00 0.00 0.00 59 1018.8
20190420074637 52 321 0.0 0.0 0.00 0.00 0.00 60 1018.7
20190420074546 52 320 0.0 0.0 0.00 0.00 0.00 60 1018.7
20190420074439 52 321 0.0 0.0 0.00 0.00 0.00 60 1018.7
20190420074331 52 321 0.0 0.0 0.00 0.00 0.00 60 1018.8
20190420074244 52 321 0.0 0.0 0.00 0.00 0.00 60 1018.8
20190420074136 52 321 0.0 0.0 0.00 0.00 0.00 60 1018.8
20190420074043 52 321 0.0 0.0 0.00 0.00 0.00 60 1018.8
20190420073935 52 321 0.0 0.0 0.00 0.00 0.00 61 1018.8
20190420073847 52 321 0.0 0.0 0.00 0.00 0.00 61 1018.8
20190420073739 52 321 0.0 0.0 0.00 0.00 0.00 61 1018.8
20190420073634 52 321 0.0 0.0 0.00 0.00 0.00 60 1018.8
20190420073541 52 321 0.0 0.0 0.00 0.00 0.00 60 1018.8
20190420073434 52 321 0.0 0.0 0.00 0.00 0.00 60 1018.8
20190420073345 52 321 0.0 0.0 0.00 0.00 0.00 60 1018.8
20190420073237 52 321 0.0 0.0 0.00 0.00 0.00 60 1018.8
20190420073129 52 321 0.0 0.0 0.00 0.00 0.00 61 1018.8
20190420073038 52 321 0.0 0.0 0.00 0.00 0.00 61 1018.8
20190420072947 52 321 0.0 0.0 0.00 0.00 0.00 61 1018.8
20190420072839 52 320 0.0 0.0 0.00 0.00 0.00 61 1018.9
20190420072734 52 321 0.0 0.0 0.00 0.00 0.00 60 1018.8
20190420072646 53 321 0.0 0.0 0.00 0.00 0.00 60 1018.8
20190420072533 53 321 0.0 0.0 0.00 0.00 0.00 60 1018.8
20190420072445 53 320 0.0 0.0 0.00 0.00 0.00 60 1018.8
20190420072337 53 321 0.0 0.0 0.00 0.00 0.00 60 1018.8
20190420072229 53 320 0.0 0.0 0.00 0.00 0.00 60 1018.8
20190420072141 53 321 0.0 0.0 0.00 0.00 0.00 60 1018.8
20190420072028 53 321 0.0 0.0 0.00 0.00 0.00 61 1018.9
20190420071944 53 321 0.0 0.0 0.00 0.00 0.00 61 1018.9
20190420071836 53 321 0.0 0.0 0.00 0.00 0.00 61 1018.9
20190420071728 53 321 0.0 0.0 0.00 0.00 0.00 57 1018.9
20190420071640 53 321 0.0 0.0 0.00 0.00 0.00 56 1018.9
20190420071549 53 321 0.0 0.0 0.00 0.00 0.00 56 1018.9
20190420071439 53 321 0.0 0.0 0.00 0.00 0.00 56 1018.9
20190420071331 53 321 0.0 0.0 0.00 0.00 0.00 56 1018.9
20190420071242 53 321 0.0 0.0 0.00 0.00 0.00 56 1018.9
20190420071138 53 321 0.0 0.0 0.00 0.00 0.00 56 1019.0
20190420071044 53 321 0.0 0.0 0.00 0.00 0.00 56 1018.9
20190420070936 53 321 0.0 0.0 0.00 0.00 0.00 56 1018.9
20190420070847 53 321 0.0 0.0 0.00 0.00 0.00 56 1018.9
20190420070740 53 321 0.0 0.0 0.00 0.00 0.00 57 1019.0
20190420070632 53 320 0.0 0.0 0.00 0.00 0.00 56 1018.9
20190420070539 53 321 0.0 0.0 0.00 0.00 0.00 57 1018.9
20190420070430 53 321 0.0 0.0 0.00 0.00 0.00 57 1019.0
20190420070342 53 321 0.0 0.0 0.00 0.00 0.00 57 1019.0
20190420070239 53 321 0.0 0.0 0.00 0.00 0.00 57 1018.9
20190420070131 53 321 0.0 0.0 0.00 0.00 0.00 57 1018.9
20190420070038 53 321 0.0 0.0 0.00 0.00 0.00 57 1018.9
20190420065947 53 321 0.0 0.0 0.00 0.00 0.00 57 1018.9
20190420065839 53 320 0.0 0.0 0.00 0.00 0.00 57 1018.9
20190420065730 53 321 0.0 0.0 0.00 0.00 0.00 57 1019.0
20190420065642 53 321 0.0 0.0 0.00 0.00 0.00 57 1019.0
20190420065529 53 321 0.0 0.0 0.00 0.00 0.00 57 1019.0
20190420065445 53 321 0.0 0.0 0.00 0.00 0.00 57 1019.0
20190420065338 53 321 0.0 0.0 0.00 0.00 0.00 57 1019.0
20190420065229 53 321 0.0 0.0 0.00 0.00 0.00 57 1019.0
20190420065141 53 321 0.0 0.0 0.00 0.00 0.00 57 1019.0
20190420065028 53 320 0.0 0.0 0.00 0.00 0.00 57 1019.1
20190420064940 53 321 0.0 0.0 0.00 0.00 0.00 57 1019.1
20190420064832 53 321 0.0 0.0 0.00 0.00 0.00 57 1019.1
20190420064745 53 321 0.0 0.0 0.00 0.00 0.00 57 1019.1
20190420064641 53 321 0.0 0.0 0.00 0.00 0.00 57 1019.1
20190420064549 53 321 0.0 0.0 0.00 0.00 0.00 57 1019.1
20190420064439 52 321 0.0 0.0 0.00 0.00 0.00 57 1019.1
20190420064331 53 320 0.0 0.0 0.00 0.00 0.00 57 1019.1
20190420064243 52 321 0.0 0.0 0.00 0.00 0.00 57 1019.1
20190420064136 52 321 0.0 0.0 0.00 0.00 0.00 58 1019.1
20190420064043 52 321 0.0 0.0 0.00 0.00 0.00 58 1019.2
20190420063935 52 321 0.0 0.0 0.00 0.00 0.00 58 1019.1
20190420063831 52 320 0.0 0.0 0.00 0.00 0.00 58 1019.1
20190420063743 52 321 0.0 0.0 0.00 0.00 0.00 58 1019.1
20190420063635 52 320 0.0 0.0 0.00 0.00 0.00 58 1019.1
20190420063543 52 321 0.0 0.0 0.00 0.00 0.00 58 1019.2
20190420063434 52 321 0.0 0.0 0.00 0.00 0.00 58 1019.2
20190420063346 52 321 0.0 0.0 0.00 0.00 0.00 58 1019.2
20190420063238 52 320 0.0 0.0 0.00 0.00 0.00 58 1019.2
20190420063130 52 321 0.0 0.0 0.00 0.00 0.00 58 1019.2
20190420063038 52 321 0.0 0.0 0.00 0.00 0.00 58 1019.2
20190420062932 52 321 0.0 0.0 0.00 0.00 0.00 58 1019.2
20190420062844 52 321 0.0 0.0 0.00 0.00 0.00 58 1019.2
20190420062736 52 321 0.0 0.0 0.00 0.00 0.00 58 1019.2
20190420062628 52 320 0.0 0.0 0.00 0.00 0.00 58 1019.2
20190420062535 52 321 0.0 0.0 0.00 0.00 0.00 59 1019.2
20190420062447 52 321 0.0 0.0 0.00 0.00 0.00 59 1019.1
20190420062339 52 321 0.0 0.0 0.00 0.00 0.00 59 1019.2
20190420062230 52 321 0.0 0.0 0.00 0.00 0.00 59 1019.2
20190420062146 52 321 0.0 0.0 0.00 0.00 0.00 58 1019.2
20190420062033 52 321 0.0 0.0 0.00 0.00 0.00 59 1019.2
20190420061945 52 321 0.0 0.0 0.00 0.00 0.00 59 1019.2
20190420061837 52 321 0.0 0.0 0.00 0.00 0.00 59 1019.2
20190420061728 52 321 0.0 0.0 0.00 0.00 0.00 59 1019.2
20190420061640 52 321 0.0 0.0 0.00 0.00 0.00 59 1019.2
20190420061548 52 321 0.0 0.0 0.00 0.00 0.00 59 1019.2
20190420061438 52 321 0.0 0.0 0.00 0.00 0.00 58 1019.2
20190420061334 52 321 0.0 0.0 0.00 0.00 0.00 58 1019.2
20190420061246 52 321 0.0 0.0 0.00 0.00 0.00 58 1019.2
20190420061137 52 320 0.0 0.0 0.00 0.00 0.00 58 1019.2
20190420061044 52 321 0.0 0.0 0.00 0.00 0.00 58 1019.2
20190420060936 52 321 0.0 0.0 0.00 0.00 0.00 58 1019.2
20190420060828 52 321 0.0 0.0 0.00 0.00 0.00 58 1019.3
20190420060740 52 321 0.0 0.0 0.00 0.00 0.00 58 1019.3
20190420060632 52 321 0.0 0.0 0.00 0.00 0.00 58 1019.3
20190420060539 52 321 0.0 0.0 0.00 0.00 0.00 58 1019.3
20190420060434 53 321 0.0 0.0 0.00 0.00 0.00 58 1019.3
20190420060346 53 321 0.0 0.0 0.00 0.00 0.00 58 1019.3
20190420060238 53 321 0.0 0.0 0.00 0.00 0.00 58 1019.3
20190420060130 53 321 0.0 0.0 0.00 0.00 0.00 58 1019.3
20190420060038 53 321 0.0 0.0 0.00 0.00 0.00 58 1019.3
20190420055947 53 320 0.0 0.0 0.00 0.00 0.00 58 1019.3
20190420055840 53 321 0.0 0.0 0.00 0.00 0.00 58 1019.3
20190420055732 53 321 0.0 0.0 0.00 0.00 0.00 58 1019.3
20190420055629 53 321 0.0 0.0 0.00 0.00 0.00 58 1019.3
20190420055535 53 321 0.0 0.0 0.00 0.00 0.00 58 1019.3
20190420055447 53 321 0.0 0.0 0.00 0.00 0.00 59 1019.3
20190420055339 53 321 0.0 0.0 0.00 0.00 0.00 58 1019.3
20190420055230 53 321 0.0 0.0 0.00 0.00 0.00 58 1019.4
20190420055142 53 321 0.0 0.0 0.00 0.00 0.00 58 1019.4
20190420055029 53 321 0.0 0.0 0.00 0.00 0.00 57 1019.4
20190420054941 53 321 0.0 0.0 0.00 0.00 0.00 57 1019.4
20190420054836 53 321 0.0 0.0 0.00 0.00 0.00 57 1019.4
20190420054729 53 321 0.0 0.0 0.00 0.00 0.00 58 1019.4
20190420054642 53 321 0.0 0.0 0.00 0.00 0.00 58 1019.4
20190420054528 53 321 0.0 0.0 0.00 0.00 0.00 58 1019.4
20190420054440 53 321 0.0 0.0 0.00 0.00 0.00 58 1019.4
20190420054332 53 320 0.0 0.0 0.00 0.00 0.00 57 1019.4
20190420054243 53 320 0.0 0.0 0.00 0.00 0.00 56 1019.4
20190420054135 53 321 0.0 0.0 0.00 0.00 0.00 56 1019.4
20190420054042 53 321 0.0 0.0 0.00 0.00 0.00 56 1019.5
20190420053938 53 321 0.0 0.0 0.00 0.00 0.00 55 1019.5
20190420053830 53 321 0.0 0.0 0.00 0.00 0.00 55 1019.5
20190420053742 54 320 0.0 0.0 0.00 0.00 0.00 55 1019.5
20190420053635 54 321 0.0 0.0 0.00 0.00 0.00 55 1019.5
20190420053542 54 321 0.0 0.0 0.00 0.00 0.00 55 1019.5
20190420053433 54 320 0.0 0.0 0.00 0.00 0.00 55 1019.5
20190420053345 54 321 0.0 0.0 0.00 0.00 0.00 55 1019.5
20190420053237 54 321 0.0 0.0 0.00 0.00 0.00 55 1019.5
20190420053133 54 321 0.0 0.0 0.00 0.00 0.00 55 1019.5
20190420053040 54 321 0.0 0.0 0.00 0.00 0.00 55 1019.5
20190420052930 54 321 0.0 0.0 0.00 0.00 0.00 55 1019.5
20190420052841 54 321 0.0 0.0 0.00 0.00 0.00 55 1019.5
20190420052733 54 321 0.0 0.0 0.00 0.00 0.00 55 1019.5
20190420052645 54 320 0.0 0.0 0.00 0.00 0.00 54 1019.5
20190420052531 54 321 0.0 0.0 0.00 0.00 0.00 54 1019.5
20190420052444 54 321 0.0 0.0 0.00 0.00 0.00 55 1019.5
20190420052339 54 321 0.0 0.0 0.00 0.00 0.00 54 1019.5
20190420052231 54 321 0.0 0.0 0.00 0.00 0.00 55 1019.4
20190420052143 54 321 0.0 0.0 0.00 0.00 0.00 54 1019.4
20190420052049 54 321 0.0 0.0 0.00 0.00 0.00 54 1019.5
20190420051940 54 321 0.0 0.0 0.00 0.00 0.00 54 1019.5
20190420051831 54 321 0.0 0.0 0.00 0.00 0.00 54 1019.5
20190420051743 54 320 0.0 0.0 0.00 0.00 0.00 53 1019.5
20190420051634 55 321 0.0 0.0 0.00 0.00 0.00 53 1019.5
20190420051543 55 321 0.0 0.0 0.00 0.00 0.00 53 1019.5
20190420051437 55 321 0.0 0.0 0.00 0.00 0.00 53 1019.5
20190420051328 55 321 0.0 0.0 0.00 0.00 0.00 52 1019.5
20190420051240 55 321 0.0 0.0 0.00 0.00 0.00 51 1019.5
20190420051132 55 320 0.0 0.0 0.00 0.00 0.00 51 1019.4
20190420051039 55 320 0.0 0.0 0.00 0.00 0.00 51 1019.4
20190420050932 55 321 0.0 0.0 0.00 0.00 0.00 51 1019.4
20190420050844 55 321 0.0 0.0 0.00 0.00 0.00 51 1019.4
20190420050735 55 320 0.0 0.0 0.00 0.00 0.00 51 1019.4
20190420050632 55 321 0.0 0.0 0.00 0.00 0.00 50 1019.4
20190420050539 55 321 0.0 0.0 0.00 0.00 0.00 50 1019.4
20190420050430 55 321 0.0 0.0 0.00 0.00 0.00 50 1019.4
20190420050342 55 321 0.0 0.0 0.00 0.00 0.00 50 1019.4
20190420050233 55 320 0.0 0.0 0.00 0.00 0.00 50 1019.5
20190420050145 55 321 0.0 0.0 0.00 0.00 0.00 49 1019.5
20190420050053 55 321 0.0 0.0 0.00 0.00 0.00 49 1019.5
20190420045935 55 321 0.0 0.0 0.00 0.00 0.00 49 1019.5
20190420045847 55 320 0.0 0.0 0.00 0.00 0.00 49 1019.5
20190420045744 56 321 0.0 0.0 0.00 0.00 0.00 49 1019.6
20190420045636 56 320 0.0 0.0 0.00 0.00 0.00 49 1019.5
20190420045543 56 321 0.0 0.0 0.00 0.00 0.00 49 1019.5
20190420045435 56 321 0.0 0.0 0.00 0.00 0.00 49 1019.5
20190420045346 56 321 0.0 0.0 0.00 0.00 0.00 48 1019.5
20190420045240 56 321 0.0 0.0 0.00 0.00 0.00 48 1019.5
20190420045131 56 321 0.0 0.0 0.00 0.00 0.00 48 1019.5
20190420045038 56 321 0.0 0.0 0.00 0.00 0.00 49 1019.5
20190420044933 56 321 0.0 0.0 0.00 0.00 0.00 49 1019.5
20190420044845 55 321 0.0 0.0 0.00 0.00 0.00 49 1019.5
20190420044737 55 321 0.0 0.0 0.00 0.00 0.00 49 1019.5
20190420044629 55 321 0.0 0.0 0.00 0.00 0.00 49 1019.5
20190420044538 55 321 0.0 0.0 0.00 0.00 0.00 49 1019.5
20190420044428 55 321 0.0 0.0 0.00 0.00 0.00 49 1019.6
20190420044340 55 320 0.0 0.0 0.00 0.00 0.00 50 1019.6
20190420044231 55 321 0.0 0.0 0.00 0.00 0.00 50 1019.5
20190420044143 55 320 0.0 0.0 0.00 0.00 0.00 50 1019.5
20190420044034 55 320 0.0 0.0 0.00 0.00 0.00 50 1019.6
20190420043946 55 321 0.0 0.0 0.00 0.00 0.00 50 1019.5
20190420043838 55 321 0.0 0.0 0.00 0.00 0.00 50 1019.5
20190420043729 55 321 0.0 0.0 0.00 0.00 0.00 51 1019.5
20190420043641 55 321 0.0 0.0 0.00 0.00 0.00 51 1019.5
20190420043528 55 321 0.0 0.0 0.00 0.00 0.00 51 1019.4
20190420043440 54 320 0.0 0.0 0.00 0.00 0.00 51 1019.4
20190420043331 54 321 0.0 0.0 0.00 0.00 0.00 52 1019.5
20190420043247 54 320 0.0 0.0 0.00 0.00 0.00 52 1019.5
20190420043139 54 321 0.0 0.0 0.00 0.00 0.00 53 1019.5
20190420043047 54 321 0.0 0.0 0.00 0.00 0.00 53 1019.5
20190420042937 54 321 0.0 0.0 0.00 0.00 0.00 54 1019.5
20190420042828 54 321 0.0 0.0 0.00 0.00 0.00 55 1019.5
20190420042740 54 321 0.0 0.0 0.00 0.00 0.00 56 1019.5
20190420042632 54 321 0.0 0.0 0.00 0.00 0.00 57 1019.5
20190420042539 54 321 0.0 0.0 0.00 0.00 0.00 56 1019.5
20190420042435 54 321 0.0 0.0 0.00 0.00 0.00 56 1019.5
20190420042347 54 321 0.0 0.0 0.00 0.00 0.00 56 1019.6
20190420042239 54 321 0.0 0.0 0.00 0.00 0.00 56 1019.6
20190420042130 55 321 0.0 0.0 0.00 0.00 0.00 55 1019.5
20190420042037 55 321 0.0 0.0 0.00 0.00 0.00 55 1019.5
20190420041929 55 320 0.0 0.0 0.00 0.00 0.00 55 1019.5
20190420041842 55 321 0.0 0.0 0.00 0.00 0.00 55 1019.5
20190420041734 55 321 0.0 0.0 0.00 0.00 0.00 54 1019.5
20190420041630 55 321 0.0 0.0 0.00 0.00 0.00 54 1019.5
20190420041537 55 321 0.0 0.0 0.00 0.00 0.00 54 1019.5
20190420041447 55 321 0.0 0.0 0.00 0.00 0.00 54 1019.5
20190420041339 55 321 0.0 0.0 0.00 0.00 0.00 55 1019.5
20190420041231 55 321 0.0 0.0 0.00 0.00 0.00 55 1019.5
20190420041143 55 320 0.0 0.0 0.00 0.00 0.00 54 1019.5
20190420041030 55 321 0.0 0.0 0.00 0.00 0.00 55 1019.5
20190420040941 55 320 0.0 0.0 0.00 0.00 0.00 55 1019.5
20190420040834 55 321 0.0 0.0 0.00 0.00 0.00 54 1019.6
20190420040729 55 320 0.0 0.0 0.00 0.00 0.00 55 1019.5
20190420040642 55 321 0.0 0.0 0.00 0.00 0.00 55 1019.5
20190420040529 56 321 0.0 0.0 0.00 0.00 0.00 55 1019.5
20190420040441 56 321 0.0 0.0 0.00 0.00 0.00 54 1019.5
20190420040334 56 320 0.0 0.0 0.00 0.00 0.00 54 1019.5
20190420040246 56 321 0.0 0.0 0.00 0.00 0.00 53 1019.5
20190420040138 56 321 0.0 0.0 0.00 0.00 0.00 54 1019.5
20190420040046 56 321 0.0 0.0 0.00 0.00 0.00 54 1019.5
20190420035941 56 321 0.0 0.0 0.00 0.00 0.00 54 1019.5
20190420035833 56 321 0.0 0.0 0.00 0.00 0.00 53 1019.5
20190420035744 56 321 0.0 0.0 0.00 0.00 0.00 53 1019.5
20190420035637 56 321 0.0 0.0 0.00 0.00 0.00 53 1019.4
20190420035543 56 320 0.0 0.0 0.00 0.00 0.00 53 1019.5
20190420035436 56 321 0.0 0.0 0.00 0.00 0.00 54 1019.5
20190420035328 56 320 0.0 0.0 0.00 0.00 0.00 53 1019.5
20190420035240 56 321 0.0 0.0 0.00 0.00 0.00 54 1019.5
20190420035136 56 320 0.0 0.0 0.00 0.00 0.00 53 1019.5
20190420035041 56 321 0.0 0.0 0.00 0.00 0.00 53 1019.5
20190420034935 56 321 0.0 0.0 0.00 0.00 0.00 54 1019.4
20190420034846 56 320 0.0 0.0 0.00 0.00 0.00 53 1019.5
20190420034738 56 320 0.0 0.0 0.00 0.00 0.00 54 1019.5
20190420034630 56 320 0.0 0.0 0.00 0.00 0.00 53 1019.5
20190420034539 56 320 0.0 0.0 0.00 0.00 0.00 53 1019.5
20190420034429 56 320 0.0 0.0 0.00 0.00 0.00 53 1019.5
20190420034340 56 320 0.0 0.0 0.00 0.00 0.00 53 1019.5
20190420034237 56 320 0.0 0.0 0.00 0.00 0.00 53 1019.5
20190420034130 56 320 0.0 0.0 0.00 0.00 0.00 53 1019.5
20190420034037 56 320 0.0 0.0 0.00 0.00 0.00 53 1019.5
20190420033929 56 320 0.0 0.0 0.00 0.00 0.00 52 1019.5
20190420033841 56 320 0.0 0.0 0.00 0.00 0.00 53 1019.5
20190420033733 56 320 0.0 0.0 0.00 0.00 0.00 53 1019.4
20190420033643 56 320 0.0 0.0 0.00 0.00 0.00 53 1019.4
20190420033532 56 320 0.0 0.0 0.00 0.00 0.00 52 1019.4
20190420033428 56 320 0.0 0.0 0.00 0.00 0.00 52 1019.4
20190420033339 56 320 0.0 0.0 0.00 0.00 0.00 52 1019.4
20190420033232 56 320 0.0 0.0 0.00 0.00 0.00 53 1019.5
20190420033146 56 320 0.0 0.0 0.00 0.00 0.00 53 1019.5
20190420033030 56 329 0.0 0.0 0.00 0.00 0.00 53 1019.5
20190420032941 56 329 0.0 0.0 0.00 0.00 0.00 52 1019.5
20190420032833 56 329 0.0 0.0 0.00 0.00 0.00 53 1019.5
20190420032744 57 329 0.0 0.0 0.00 0.00 0.00 52 1019.5
20190420032641 57 329 0.0 0.0 0.00 0.00 0.00 52 1019.5
20190420032528 57 329 0.0 0.0 0.00 0.00 0.00 52 1019.5
20190420032439 57 329 0.0 0.0 0.00 0.00 0.00 51 1019.5
20190420032331 57 329 0.0 0.0 0.00 0.00 0.00 52 1019.5
20190420032244 57 329 0.0 0.0 0.00 0.00 0.00 52 1019.5
20190420032136 57 329 0.0 0.0 0.00 0.00 0.00 52 1019.5
20190420032042 57 329 0.0 0.0 0.00 0.00 0.00 52 1019.5
20190420031934 57 329 0.0 0.0 0.00 0.00 0.00 51 1019.4
20190420031830 57 329 0.0 0.0 0.00 0.00 0.00 52 1019.4
20190420031742 57 329 0.0 0.0 0.00 0.00 0.00 52 1019.4
20190420031634 57 329 0.0 0.0 0.00 0.00 0.00 52 1019.4
20190420031541 57 329 0.0 0.0 0.00 0.00 0.00 52 1019.4
20190420031431 57 329 0.0 0.0 0.00 0.00 0.00 52 1019.4
20190420031342 57 329 0.0 0.0 0.00 0.00 0.00 52 1019.4
20190420031235 57 329 0.0 0.0 0.00 0.00 0.00 51 1019.4
20190420031146 57 329 0.0 0.0 0.00 0.00 0.00 52 1019.4
20190420031033 57 329 0.0 0.0 0.00 0.00 0.00 50 1019.4
20190420030929 57 329 0.0 0.0 0.00 0.00 0.00 51 1019.4
20190420030841 57 329 0.0 0.0 0.00 0.00 0.00 50 1019.4
20190420030644 57 329 0.0 0.0 0.00 0.00 0.00 51 1019.3
20190420030531 57 329 0.0 0.0 0.00 0.00 0.00 51 1019.3
20190420030442 57 329 0.0 0.0 0.00 0.00 0.00 51 1019.3
20190420030334 57 329 0.0 0.0 0.00 0.00 0.00 52 1019.3
20190420030246 57 329 0.0 0.0 0.00 0.00 0.00 51 1019.3
20190420030144 57 329 0.0 0.0 0.00 0.00 0.00 50 1019.2
20190420030029 57 329 0.0 0.0 0.00 0.00 0.00 50 1019.2
20190420025940 57 329 0.0 0.0 0.00 0.00 0.00 50 1019.2
20190420025832 57 329 0.0 0.0 0.00 0.00 0.00 50 1019.2
20190420025744 57 329 0.0 0.0 0.00 0.00 0.00 51 1019.2
20190420025636 57 329 0.0 0.0 0.00 0.00 0.00 51 1019.2
20190420025543 57 329 0.0 0.0 0.00 0.00 0.00 51 1019.2
20190420025436 57 329 0.0 0.0 0.00 0.00 0.00 51 1019.1
20190420025332 57 329 0.0 0.0 0.00 0.00 0.00 51 1019.1
20190420025243 57 329 0.0 0.0 0.00 0.00 0.00 51 1019.1
20190420025136 57 329 0.0 0.0 0.00 0.00 0.00 51 1019.1
20190420025043 57 329 0.0 0.0 0.00 0.00 0.00 51 1019.1
20190420024935 57 329 0.0 0.0 0.00 0.00 0.00 52 1019.1
20190420024847 57 329 0.0 0.0 0.00 0.00 0.00 51 1019.1
20190420024738 57 329 0.0 0.0 0.00 0.00 0.00 51 1019.1
20190420024630 57 329 0.0 0.0 0.00 0.00 0.00 51 1019.0
20190420024538 57 329 0.0 0.0 0.00 0.00 0.00 51 1019.0
20190420024431 58 329 0.0 0.0 0.00 0.00 0.00 51 1019.0
20190420024344 58 329 0.0 0.0 0.00 0.00 0.00 51 1019.0
20190420024236 58 329 0.0 0.0 0.00 0.00 0.00 52 1019.0
20190420024128 58 329 0.0 0.0 0.00 0.00 0.00 51 1019.0
20190420024034 58 329 0.0 0.0 0.00 0.00 0.00 51 1019.0
20190420023947 58 329 0.0 0.0 0.00 0.00 0.00 51 1018.9
20190420023839 58 329 0.0 0.0 0.00 0.00 0.00 51 1018.8
20190420023731 58 329 0.0 0.0 0.00 0.00 0.00 51 1018.8
20190420023647 58 329 0.0 0.0 0.00 0.00 0.00 51 1018.8
20190420023533 58 329 0.0 0.0 0.00 0.00 0.00 50 1018.8
20190420023445 58 329 0.0 0.0 0.00 0.00 0.00 50 1018.8
20190420023337 58 329 0.0 0.0 0.00 0.00 0.00 50 1018.8
20190420023229 58 329 0.0 0.0 0.00 0.00 0.00 50 1018.8
20190420023142 58 329 0.0 0.0 0.00 0.00 0.00 50 1018.8
20190420023028 58 329 0.0 0.0 0.00 0.00 0.00 50 1018.8
20190420022940 58 329 0.0 0.0 0.00 0.00 0.00 49 1018.8
20190420022835 58 329 0.0 0.0 0.00 0.00 0.00 49 1018.8
20190420022728 58 329 0.0 0.0 0.00 0.00 0.00 49 1018.7
20190420022640 58 329 0.0 0.0 0.00 0.00 0.00 49 1018.7
20190420022546 58 329 0.0 0.0 0.00 0.00 0.00 49 1018.7
20190420022439 58 329 0.0 0.0 0.00 0.00 0.00 49 1018.7
20190420022331 58 329 0.0 0.0 0.00 0.00 0.00 49 1018.7
20190420022243 58 329 0.0 0.0 0.00 0.00 0.00 49 1018.7
20190420022135 59 329 0.0 0.0 0.00 0.00 0.00 49 1018.7
20190420022042 59 329 0.0 0.0 0.00 0.00 0.00 49 1018.7
20190420021938 59 329 0.0 0.0 0.00 0.00 0.00 48 1018.7
20190420021829 59 329 0.0 0.0 0.00 0.00 0.00 49 1018.7
20190420021741 59 329 0.0 0.0 0.00 0.00 0.00 49 1018.7
20190420021633 59 329 0.0 0.0 0.00 0.00 0.00 49 1018.7
20190420021541 59 329 0.0 0.0 0.00 0.00 0.00 49 1018.7
20190420021430 59 329 0.0 0.0 0.00 0.00 0.00 49 1018.7
20190420021342 59 329 0.0 0.0 0.00 0.00 0.00 49 1018.7
20190420021234 60 329 0.0 0.0 0.00 0.00 0.00 48 1018.6
20190420021130 60 329 0.0 0.0 0.00 0.00 0.00 47 1018.6
20190420021037 60 329 0.0 0.0 0.00 0.00 0.00 48 1018.6
20190420020928 60 329 0.0 0.0 0.00 0.00 0.00 46 1018.6
20190420020840 60 329 0.0 0.0 0.00 0.00 0.00 46 1018.6
20190420020731 60 329 0.0 0.0 0.00 0.00 0.00 46 1018.5
20190420020644 60 329 0.0 0.0 0.00 0.00 0.00 46 1018.5
20190420020531 61 329 0.0 0.9 0.00 0.00 0.00 46 1018.5
20190420020443 61 329 0.0 0.9 0.00 0.00 0.00 45 1018.5
20190420020339 61 329 0.0 0.9 0.00 0.00 0.00 46 1018.5
20190420020230 61 329 0.0 0.9 0.00 0.00 0.00 45 1018.5
20190420020143 61 329 0.0 0.9 0.00 0.00 0.00 45 1018.5
20190420020029 61 329 0.0 0.9 0.00 0.00 0.00 45 1018.4
20190420015941 61 329 0.0 0.9 0.00 0.00 0.00 44 1018.4
20190420015833 61 329 0.0 0.9 0.00 0.00 0.00 44 1018.4
20190420015744 61 329 0.0 0.9 0.00 0.00 0.00 44 1018.4
20190420015637 62 329 0.0 0.0 0.00 0.00 0.00 43 1018.4
20190420015529 62 329 0.0 0.0 0.00 0.00 0.00 43 1018.4
20190420015440 62 329 0.0 0.0 0.00 0.00 0.00 42 1018.4
20190420015333 62 329 0.0 0.0 0.00 0.00 0.00 43 1018.4
20190420015245 62 329 0.0 0.0 0.00 0.00 0.00 43 1018.4
20190420015137 62 329 0.0 0.0 0.00 0.00 0.00 42 1018.4
20190420015045 62 329 0.0 0.0 0.00 0.00 0.00 42 1018.4
20190420014936 62 329 0.0 0.0 0.00 0.00 0.00 42 1018.4
20190420014828 62 329 0.0 0.0 0.00 0.00 0.00 42 1018.3
20190420014741 62 312 0.0 0.0 0.00 0.00 0.00 42 1018.3
20190420014637 62 312 0.0 0.0 0.00 0.00 0.00 41 1018.3
20190420014545 62 313 0.0 0.9 0.00 0.00 0.00 41 1018.3
20190420014436 63 312 0.0 0.9 0.00 0.00 0.00 41 1018.3
20190420014328 63 312 0.0 0.9 0.00 0.00 0.00 41 1018.2
20190420014239 63 312 0.0 0.9 0.00 0.00 0.00 41 1018.2
20190420014131 63 312 0.0 0.9 0.00 0.00 0.00 41 1018.2
20190420014038 63 312 0.0 0.9 0.00 0.00 0.00 40 1018.2
20190420013930 63 312 0.0 0.9 0.00 0.00 0.00 40 1018.2
20190420013845 63 312 0.0 0.9 0.00 0.00 0.00 40 1018.2
20190420013737 63 312 0.0 0.9 0.00 0.00 0.00 40 1018.2
20190420013629 63 324 0.0 0.9 0.00 0.00 0.00 39 1018.1
20190420013536 63 316 0.0 0.9 0.00 0.00 0.00 39 1018.1
20190420013447 63 316 0.0 0.9 0.00 0.00 0.00 40 1018.2
20190420013339 63 303 0.0 0.9 0.00 0.00 0.00 39 1018.1
20190420013232 63 303 0.0 0.9 0.00 0.00 0.00 40 1018.1
20190420013144 63 303 0.0 0.9 0.00 0.00 0.00 39 1018.1
20190420013036 63 300 0.0 0.9 0.00 0.00 0.00 40 1018.1
20190420012945 63 298 0.0 0.9 0.00 0.00 0.00 40 1018.1
20190420012837 63 306 0.0 0.9 0.00 0.00 0.00 39 1018.1
20190420012729 63 306 0.0 0.9 0.00 0.00 0.00 39 1018.0
20190420012640 63 304 0.0 0.9 0.00 0.00 0.00 39 1018.0
20190420012547 63 304 0.0 0.9 0.00 0.00 0.00 40 1018.0
20190420012438 64 304 0.0 0.9 0.00 0.00 0.00 39 1018.0
20190420012330 64 304 0.0 0.9 0.00 0.00 0.00 40 1018.0
20190420012242 64 301 0.0 0.0 0.00 0.00 0.00 40 1018.0
20190420012138 64 301 0.0 0.0 0.00 0.00 0.00 39 1017.9
20190420012045 64 289 0.0 0.0 0.00 0.00 0.00 39 1017.9
20190420011936 64 289 0.0 0.0 0.00 0.00 0.00 39 1017.9
20190420011828 64 289 0.0 0.0 0.00 0.00 0.00 39 1017.9
20190420011740 64 289 0.0 0.0 0.00 0.00 0.00 39 1017.9
20190420011631 64 289 0.0 0.0 0.00 0.00 0.00 38 1017.9
20190420011540 65 289 0.0 0.0 0.00 0.00 0.00 38 1017.9
20190420011431 65 289 0.0 0.0 0.00 0.00 0.00 38 1017.9
20190420011347 65 289 0.0 0.0 0.00 0.00 0.00 38 1017.9
20190420011238 65 289 0.0 0.0 0.00 0.00 0.00 38 1017.9
20190420011130 65 289 0.0 1.7 0.00 0.00 0.00 38 1017.9
20190420011036 65 288 0.0 3.5 0.00 0.00 0.00 37 1017.9
20190420010928 65 289 0.0 3.5 0.00 0.00 0.00 37 1017.9
20190420010839 66 289 0.0 3.5 0.00 0.00 0.00 36 1017.9
20190420010731 66 320 0.0 3.5 0.00 0.00 0.00 37 1017.8
20190420010644 66 320 0.0 3.5 0.00 0.00 0.00 37 1017.8
20190420010535 66 320 0.0 3.5 0.00 0.00 0.00 37 1017.8
20190420010447 66 320 0.0 3.5 0.00 0.00 0.00 37 1017.8
20190420010339 66 328 0.9 3.5 0.00 0.00 0.00 36 1017.8
20190420010230 66 293 0.9 3.5 0.00 0.00 0.00 36 1017.8
20190420010143 67 300 0.0 2.6 0.00 0.00 0.00 35 1017.8
20190420010029 67 334 0.0 2.6 0.00 0.00 0.00 36 1017.8
20190420005941 67 303 0.0 2.6 0.00 0.00 0.00 35 1017.8
20190420005833 67 303 0.0 2.6 0.00 0.00 0.00 34 1017.9
20190420005729 67 295 0.0 2.6 0.00 0.00 0.00 35 1017.7
20190420005641 67 317 0.0 2.6 0.00 0.00 0.00 34 1017.7
20190420005547 68 317 0.0 2.6 0.00 0.00 0.00 34 1017.7
20190420005439 68 293 0.0 2.6 0.00 0.00 0.00 34 1017.8
20190420005331 68 290 0.0 2.6 0.00 0.00 0.00 33 1017.8
20190420005243 68 290 0.0 2.6 0.00 0.00 0.00 33 1017.8
20190420005134 68 290 0.9 2.6 0.00 0.00 0.00 33 1017.8
20190420005041 69 313 0.0 2.6 0.00 0.00 0.00 32 1017.7
20190420004933 69 310 0.0 1.7 0.00 0.00 0.00 33 1017.7
20190420004828 69 309 0.0 1.7 0.00 0.00 0.00 34 1017.7
20190420004740 69 309 0.0 1.7 0.00 0.00 0.00 33 1017.7
20190420004632 69 308 0.0 1.7 0.00 0.00 0.00 33 1017.7
20190420004540 69 308 0.0 1.7 0.00 0.00 0.00 32 1017.7
20190420004431 69 308 0.0 2.6 0.00 0.00 0.00 34 1017.7
20190420004342 69 338 0.0 2.6 0.00 0.00 0.00 33 1017.7
20190420004235 69 345 0.0 2.6 0.00 0.00 0.00 32 1017.7
20190420004147 69 351 0.0 2.6 0.00 0.00 0.00 32 1017.7
20190420004038 70 315 0.0 2.6 0.00 0.00 0.00 33 1017.7
20190420003929 70 309 0.0 2.6 0.00 0.00 0.00 32 1017.7
20190420003841 70 303 0.0 2.6 0.00 0.00 0.00 32 1017.7
20190420003733 70 27 0.9 2.6 0.00 0.00 0.00 32 1017.7
20190420003645 70 328 0.9 2.6 0.00 0.00 0.00 31 1017.7
20190420003531 70 313 0.0 2.6 0.00 0.00 0.00 32 1017.6
20190420003443 70 302 0.0 3.5 0.00 0.00 0.00 33 1017.6
20190420003336 70 298 0.9 3.5 0.00 0.00 0.00 32 1017.6
20190420003231 70 297 0.0 3.5 0.00 0.00 0.00 31 1017.6
20190420003146 70 320 0.0 3.5 0.00 0.00 0.00 33 1017.6
20190420003031 70 320 0.0 3.5 0.00 0.00 0.00 32 1017.6
20190420002943 70 311 0.0 7.0 0.00 0.00 0.00 32 1017.6
20190420002834 70 314 0.9 7.0 0.00 0.00 0.00 31 1017.6
20190420002746 70 316 0.9 7.0 0.00 0.00 0.00 30 1017.6
20190420002638 70 289 0.9 7.0 0.00 0.00 0.00 31 1017.6
20190420002545 70 320 0.9 7.0 0.00 0.00 0.00 31 1017.6
20190420002436 70 344 0.9 7.0 0.00 0.00 0.00 31 1017.6
20190420002332 70 282 0.9 7.0 0.00 0.00 0.00 31 1017.6
20190420002244 70 318 1.7 7.8 0.00 0.00 0.00 30 1017.6
20190420002136 71 314 1.7 7.8 0.00 0.00 0.00 30 1017.6
20190420002043 71 288 0.9 7.8 0.00 0.00 0.00 31 1017.6
20190420001934 71 310 0.9 7.8 0.00 0.00 0.00 31 1017.6
20190420001846 71 316 0.9 7.8 0.00 0.00 0.00 31 1017.6
20190420001738 71 319 0.9 7.8 0.00 0.00 0.00 30 1017.7
20190420001630 71 285 0.9 7.8 0.00 0.00 0.00 30 1017.7
20190420001542 71 344 1.7 7.8 0.00 0.00 0.00 30 1017.7
20190420001432 71 316 1.7 7.8 0.00 0.00 0.00 30 1017.7
20190420001343 71 262 0.9 6.1 0.00 0.00 0.00 30 1017.7
20190420001235 71 297 0.0 6.1 0.00 0.00 0.00 30 1017.7
20190420001146 71 70 0.0 6.1 0.00 0.00 0.00 32 1017.7
20190420001035 71 297 1.7 6.1 0.00 0.00 0.00 30 1017.7
20190420000945 71 326 1.7 6.1 0.00 0.00 0.00 30 1017.7
20190420000838 71 314 1.7 6.1 0.00 0.00 0.00 29 1017.6
20190420000734 71 78 1.7 6.1 0.00 0.00 0.00 29 1017.6
20190420000645 71 313 2.6 6.1 0.00 0.00 0.00 30 1017.7
20190420000533 71 312 1.7 6.1 0.00 0.00 0.00 29 1017.7
20190420000445 71 285 0.9 6.1 0.00 0.00 0.00 31 1017.7
20190420000338 72 327 0.9 6.1 0.00 0.00 0.00 31 1017.6
20190420000230 72 328 0.0 5.2 0.00 0.00 0.00 31 1017.6
20190420000142 72 307 0.0 5.2 0.00 0.00 0.00 29 1017.6
20190420000028 72 276 0.9 5.2 0.00 0.00 0.00 30 1017.6
20190419235940 72 310 1.7 5.2 0.00 0.00 0.00 29 1017.6
20190419235837 72 317 0.9 5.2 0.00 0.00 0.00 29 1017.6
20190419235728 72 307 1.7 5.2 0.00 0.00 0.00 30 1017.6
20190419235640 72 223 1.7 5.2 0.00 0.00 0.00 29 1017.6
20190419235546 72 309 1.7 5.2 0.00 0.00 0.00 30 1017.6
20190419235439 72 316 0.9 3.5 0.00 0.00 0.00 30 1017.6
20190419235331 72 289 0.9 3.5 0.00 0.00 0.00 31 1017.6
20190419235243 72 287 0.9 5.2 0.00 0.00 0.00 30 1017.6
20190419235137 72 321 0.0 6.1 0.00 0.00 0.00 31 1017.7
20190419235028 72 243 0.0 7.0 0.00 0.00 0.00 30 1017.6
20190419234940 72 305 0.9 7.0 0.00 0.00 0.00 31 1017.6
20190419234832 72 323 0.9 7.0 0.00 0.00 0.00 30 1017.6
20190419234743 72 358 0.9 7.0 0.00 0.00 0.00 30 1017.6
20190419234635 72 322 1.7 7.0 0.00 0.00 0.00 31 1017.6
20190419234543 72 314 1.7 7.0 0.00 0.00 0.00 29 1017.6
20190419234433 72 328 2.6 7.0 0.00 0.00 0.00 29 1017.6
20190419234345 72 310 2.6 7.0 0.00 0.00 0.00 29 1017.6
20190419234241 72 326 3.5 7.0 0.00 0.00 0.00 28 1017.6
20190419234133 72 302 3.5 7.0 0.00 0.00 0.00 27 1017.6
20190419234039 72 321 3.5 7.0 0.00 0.00 0.00 28 1017.6
20190419233931 72 285 2.6 7.0 0.00 0.00 0.00 27 1017.6
20190419233843 72 296 2.6 7.0 0.00 0.00 0.00 29 1017.6
20190419233736 72 306 1.7 7.0 0.00 0.00 0.00 30 1017.6
20190419233647 72 78 1.7 7.8 0.00 0.00 0.00 30 1017.7
20190419233534 72 8 2.6 7.8 0.00 0.00 0.00 30 1017.6
20190419233428 72 297 1.7 7.8 0.00 0.00 0.00 29 1017.7
20190419233340 72 333 0.9 7.8 0.00 0.00 0.00 30 1017.7
20190419233231 72 293 0.9 7.8 0.00 0.00 0.00 29 1017.7
20190419233144 72 321 0.9 7.8 0.00 0.00 0.00 28 1017.7
20190419233030 72 327 1.7 7.8 0.00 0.00 0.00 28 1017.6
20190419232941 72 318 3.5 7.8 0.00 0.00 0.00 29 1017.6
20190419232834 72 319 2.6 7.8 0.00 0.00 0.00 28 1017.6
20190419232745 72 304 1.7 6.1 0.00 0.00 0.00 29 1017.6
20190419232637 72 299 2.6 7.8 0.00 0.00 0.00 29 1017.6
20190419232547 72 328 2.6 7.8 0.00 0.00 0.00 30 1017.6
20190419232439 72 310 2.6 7.8 0.00 0.00 0.00 29 1017.6
20190419232331 72 321 2.6 7.8 0.00 0.00 0.00 29 1017.6
20190419232242 72 333 2.6 7.8 0.00 0.00 0.00 28 1017.6
20190419232136 72 314 0.9 7.8 0.00 0.00 0.00 30 1017.6
20190419232044 72 39 0.9 7.8 0.00 0.00 0.00 29 1017.7
20190419231936 72 348 2.6 7.8 0.00 0.00 0.00 29 1017.6
20190419231828 72 360 3.5 7.8 0.00 0.00 0.00 27 1017.7
20190419231743 73 322 1.7 6.1 0.00 0.00 0.00 28 1017.7
20190419231636 73 338 1.7 6.1 0.00 0.00 0.00 29 1017.6
20190419231544 73 300 1.7 6.1 0.00 0.00 0.00 27 1017.7
20190419231435 73 12 1.7 6.1 0.00 0.00 0.00 29 1017.7
20190419231346 73 302 1.7 6.1 0.00 0.00 0.00 29 1017.6
20190419231239 73 303 0.9 6.1 0.00 0.00 0.00 28 1017.7
20190419231130 73 45 0.0 6.1 0.00 0.00 0.00 29 1017.6
20190419231037 73 304 0.9 6.1 0.00 0.00 0.00 28 1017.6
20190419230933 72 322 1.7 6.1 0.00 0.00 0.00 28 1017.6
20190419230844 72 283 2.6 6.1 0.00 0.00 0.00 28 1017.6
20190419230737 72 309 2.6 7.8 0.00 0.00 0.00 28 1017.6
20190419230628 72 317 0.9 7.8 0.00 0.00 0.00 27 1017.6
20190419230536 72 300 0.9 9.6 0.00 0.00 0.00 30 1017.6
20190419230428 72 340 1.7 9.6 0.00 0.00 0.00 28 1017.5
20190419230340 72 305 1.7 9.6 0.00 0.00 0.00 28 1017.5
20190419230233 72 44 1.7 9.6 0.00 0.00 0.00 29 1017.5
20190419230128 72 279 2.6 9.6 0.00 0.00 0.00 29 1017.6
20190419230037 72 330 4.3 9.6 0.00 0.00 0.00 27 1017.6
20190419225945 72 4 4.3 9.6 0.00 0.00 0.00 28 1017.6
20190419225838 72 248 5.2 9.6 0.00 0.00 0.00 27 1017.6
20190419225730 72 314 5.2 9.6 0.00 0.00 0.00 28 1017.6
20190419225641 72 290 4.3 7.0 0.00 0.00 0.00 29 1017.6
20190419225528 72 312 3.5 7.8 0.00 0.00 0.00 29 1017.6
20190419225441 73 306 2.6 8.7 0.00 0.00 0.00 28 1017.6
20190419225332 73 329 3.5 10.4 0.00 0.00 0.00 29 1017.6
20190419225229 73 325 1.7 10.4 0.00 0.00 0.00 28 1017.6
20190419225141 73 302 0.9 10.4 0.00 0.00 0.00 31 1017.6
20190419225047 73 297 0.0 10.4 0.00 0.00 0.00 31 1017.7
20190419224939 72 359 0.9 10.4 0.00 0.00 0.00 34 1017.6
20190419224830 72 328 2.6 10.4 0.00 0.00 0.00 30 1017.7
20190419224741 72 319 4.3 10.4 0.00 0.00 0.00 30 1017.7
20190419224634 73 272 5.2 10.4 0.00 0.00 0.00 28 1017.7
20190419224543 73 316 3.5 9.6 0.00 0.00 0.00 30 1017.7
20190419224438 73 342 1.7 8.7 0.00 0.00 0.00 31 1017.6
20190419224330 73 295 1.7 8.7 0.00 0.00 0.00 31 1017.7
20190419224242 72 350 2.6 8.7 0.00 0.00 0.00 31 1017.7
20190419224134 72 289 3.5 8.7 0.00 0.00 0.00 31 1017.7
20190419224037 72 293 3.5 8.7 0.00 0.00 0.00 30 1017.7
20190419223931 72 266 3.5 7.8 0.00 0.00 0.00 30 1017.7
20190419223842 72 6 3.5 7.8 0.00 0.00 0.00 30 1017.7
20190419223735 72 313 2.6 7.8 0.00 0.00 0.00 29 1017.7
20190419223631 72 317 2.6 7.8 0.00 0.00 0.00 31 1017.6
20190419223538 72 312 3.5 8.7 0.00 0.00 0.00 29 1017.6
20190419223430 72 321 2.6 8.7 0.00 0.00 0.00 30 1017.7
20190419223341 72 335 1.7 8.7 0.00 0.00 0.00 30 1017.7
20190419223235 72 306 0.9 8.7 0.00 0.00 0.00 32 1017.7
20190419223148 72 343 1.7 8.7 0.00 0.00 0.00 30 1017.7
20190419223033 72 316 4.3 8.7 0.00 0.00 0.00 31 1017.8
20190419222944 72 224 4.3 8.7 0.00 0.00 0.00 31 1017.8
20190419222837 72 294 5.2 8.7 0.00 0.00 0.00 29 1017.7
20190419222733 72 306 4.3 8.7 0.00 0.00 0.00 29 1017.7
20190419222645 73 285 2.6 8.7 0.00 0.00 0.00 30 1017.7
20190419222533 73 294 1.7 8.7 0.00 0.00 0.00 32 1017.8
20190419222444 73 307 2.6 8.7 0.00 0.00 0.00 29 1017.8
20190419222337 73 347 3.5 8.7 0.00 0.00 0.00 30 1017.8
20190419222228 72 312 3.5 8.7 0.00 0.00 0.00 31 1017.8
20190419222141 72 305 3.5 8.7 0.00 0.00 0.00 31 1017.8
20190419222028 72 297 4.3 10.4 0.00 0.00 0.00 31 1017.7
20190419221945 72 283 3.5 10.4 0.00 0.00 0.00 31 1017.7
20190419221837 72 309 1.7 10.4 0.00 0.00 0.00 31 1017.7
20190419221728 72 272 3.5 10.4 0.00 0.00 0.00 31 1017.9
20190419221642 72 306 3.5 10.4 0.00 0.00 0.00 30 1017.9